| time (UTC) | temp C | wind direction | speed KPH | gust KPH | rain 1hr cm | rain 24hr cm | rain mn cm | humidity % | barometer mb |
| 20260509115339 | 12 | 336 | 1.6 | 4.8 | 0.00 | 0.00 | 0.00 | 88 | 1012.9 |
| 20260509115238 | 12 | 336 | 1.6 | 4.8 | 0.00 | 0.00 | 0.00 | 88 | 1012.9 |
| 20260509115135 | 12 | 336 | 1.6 | 4.8 | 0.00 | 0.00 | 0.00 | 88 | 1012.8 |
| 20260509115037 | 12 | 331 | 1.6 | 4.8 | 0.00 | 0.00 | 0.00 | 88 | 1012.9 |
| 20260509114935 | 12 | 331 | 1.6 | 4.8 | 0.00 | 0.00 | 0.00 | 88 | 1012.9 |
| 20260509114835 | 12 | 331 | 1.6 | 4.8 | 0.00 | 0.00 | 0.00 | 89 | 1012.9 |
| 20260509114732 | 12 | 110 | 1.6 | 6.4 | 0.00 | 0.00 | 0.00 | 88 | 1012.9 |
| 20260509114624 | 12 | 114 | 1.6 | 6.4 | 0.00 | 0.00 | 0.00 | 88 | 1012.8 |
| 20260509114525 | 11 | 179 | 1.6 | 6.4 | 0.00 | 0.00 | 0.00 | 88 | 1012.8 |
| 20260509114423 | 11 | 185 | 1.6 | 8.0 | 0.00 | 0.00 | 0.00 | 88 | 1012.8 |
| 20260509114323 | 11 | 178 | 3.2 | 8.0 | 0.00 | 0.00 | 0.00 | 88 | 1012.7 |
| 20260509114222 | 11 | 168 | 3.2 | 8.0 | 0.00 | 0.00 | 0.00 | 88 | 1012.7 |
| 20260509114115 | 11 | 168 | 3.2 | 8.0 | 0.00 | 0.00 | 0.00 | 88 | 1012.5 |
| 20260509114017 | 11 | 171 | 3.2 | 8.0 | 0.00 | 0.00 | 0.00 | 88 | 1012.5 |
| 20260509113916 | 11 | 171 | 3.2 | 8.0 | 0.00 | 0.00 | 0.00 | 88 | 1012.5 |
| 20260509113815 | 11 | 172 | 3.2 | 8.0 | 0.00 | 0.00 | 0.00 | 88 | 1012.4 |
| 20260509113716 | 11 | 173 | 3.2 | 8.0 | 0.00 | 0.00 | 0.00 | 88 | 1012.4 |
| 20260509113617 | 11 | 197 | 3.2 | 8.0 | 0.00 | 0.00 | 0.00 | 88 | 1012.4 |
| 20260509113512 | 11 | 197 | 3.2 | 8.0 | 0.00 | 0.00 | 0.00 | 88 | 1012.4 |
| 20260509113411 | 11 | 163 | 3.2 | 8.0 | 0.00 | 0.00 | 0.00 | 88 | 1012.4 |
| 20260509113313 | 11 | 164 | 3.2 | 8.0 | 0.00 | 0.00 | 0.00 | 88 | 1012.4 |
| 20260509113210 | 11 | 164 | 3.2 | 8.0 | 0.00 | 0.00 | 0.00 | 88 | 1012.4 |
| 20260509113100 | 11 | 164 | 3.2 | 8.0 | 0.00 | 0.00 | 0.00 | 88 | 1012.4 |
| 20260509113000 | 11 | 150 | 1.6 | 8.0 | 0.00 | 0.00 | 0.00 | 88 | 1012.5 |
| 20260509112900 | 11 | 180 | 1.6 | 8.0 | 0.00 | 0.00 | 0.00 | 88 | 1012.5 |
| 20260509112800 | 11 | 157 | 1.6 | 6.4 | 0.00 | 0.00 | 0.00 | 88 | 1012.4 |
| 20260509112700 | 11 | 155 | 1.6 | 6.4 | 0.00 | 0.00 | 0.00 | 88 | 1012.5 |
| 20260509112559 | 11 | 159 | 1.6 | 6.4 | 0.00 | 0.00 | 0.00 | 88 | 1012.5 |
| 20260509112458 | 11 | 159 | 1.6 | 6.4 | 0.00 | 0.00 | 0.00 | 88 | 1012.5 |
| 20260509112355 | 11 | 163 | 1.6 | 6.4 | 0.00 | 0.00 | 0.00 | 88 | 1012.4 |
| 20260509112255 | 11 | 183 | 1.6 | 4.8 | 0.00 | 0.00 | 0.00 | 88 | 1012.4 |
| 20260509112154 | 11 | 192 | 0.0 | 4.8 | 0.00 | 0.00 | 0.00 | 87 | 1012.5 |
| 20260509112052 | 11 | 193 | 0.0 | 4.8 | 0.00 | 0.00 | 0.00 | 87 | 1012.5 |
| 20260509111952 | 11 | 194 | 1.6 | 4.8 | 0.00 | 0.00 | 0.00 | 87 | 1012.4 |
| 20260509111851 | 11 | 194 | 1.6 | 8.0 | 0.00 | 0.00 | 0.00 | 87 | 1012.4 |
| 20260509111748 | 11 | 194 | 1.6 | 8.0 | 0.00 | 0.00 | 0.00 | 87 | 1012.5 |
| 20260509111647 | 11 | 195 | 1.6 | 8.0 | 0.00 | 0.00 | 0.00 | 87 | 1012.4 |
| 20260509111540 | 11 | 195 | 1.6 | 8.0 | 0.00 | 0.00 | 0.00 | 87 | 1012.5 |
| 20260509111439 | 11 | 195 | 1.6 | 8.0 | 0.00 | 0.00 | 0.00 | 87 | 1012.4 |
| 20260509111338 | 11 | 192 | 1.6 | 8.0 | 0.00 | 0.00 | 0.00 | 87 | 1012.4 |
| 20260509111238 | 11 | 192 | 3.2 | 9.7 | 0.00 | 0.00 | 0.00 | 87 | 1012.4 |
| 20260509111138 | 11 | 192 | 3.2 | 9.7 | 0.00 | 0.00 | 0.00 | 87 | 1012.3 |
| 20260509111037 | 11 | 192 | 3.2 | 9.7 | 0.00 | 0.00 | 0.00 | 87 | 1012.3 |
| 20260509110936 | 11 | 188 | 3.2 | 9.7 | 0.00 | 0.00 | 0.00 | 87 | 1012.3 |
| 20260509110832 | 11 | 180 | 3.2 | 9.7 | 0.00 | 0.00 | 0.00 | 87 | 1012.2 |
| 20260509110734 | 11 | 136 | 3.2 | 11.3 | 0.00 | 0.00 | 0.00 | 87 | 1012.2 |
| 20260509110632 | 11 | 136 | 3.2 | 11.3 | 0.00 | 0.00 | 0.00 | 87 | 1012.2 |
| 20260509110530 | 11 | 153 | 4.8 | 11.3 | 0.00 | 0.00 | 0.00 | 87 | 1012.2 |
| 20260509110429 | 11 | 153 | 4.8 | 11.3 | 0.00 | 0.00 | 0.00 | 87 | 1012.1 |
| 20260509110326 | 11 | 194 | 4.8 | 11.3 | 0.00 | 0.00 | 0.00 | 87 | 1012.1 |
| 20260509110228 | 11 | 155 | 4.8 | 11.3 | 0.00 | 0.00 | 0.00 | 88 | 1012.1 |
| 20260509110125 | 11 | 159 | 4.8 | 11.3 | 0.00 | 0.00 | 0.00 | 88 | 1012.1 |
| 20260509110015 | 11 | 159 | 4.8 | 11.3 | 0.00 | 0.00 | 0.00 | 88 | 1012.0 |
| 20260509105915 | 11 | 150 | 4.8 | 11.3 | 0.00 | 0.00 | 0.00 | 88 | 1011.8 |
| 20260509105816 | 11 | 145 | 4.8 | 11.3 | 0.00 | 0.00 | 0.00 | 88 | 1012.0 |
| 20260509105715 | 11 | 144 | 4.8 | 11.3 | 0.00 | 0.00 | 0.00 | 88 | 1012.0 |
| 20260509105616 | 11 | 140 | 4.8 | 11.3 | 0.00 | 0.00 | 0.00 | 88 | 1012.0 |
| 20260509105511 | 11 | 123 | 4.8 | 11.3 | 0.00 | 0.00 | 0.00 | 88 | 1012.0 |
| 20260509105410 | 11 | 157 | 4.8 | 11.3 | 0.00 | 0.00 | 0.00 | 88 | 1012.1 |
| 20260509105310 | 11 | 140 | 4.8 | 11.3 | 0.00 | 0.00 | 0.00 | 88 | 1012.1 |
| 20260509105210 | 11 | 162 | 4.8 | 11.3 | 0.00 | 0.00 | 0.00 | 88 | 1012.1 |
| 20260509105109 | 11 | 154 | 4.8 | 11.3 | 0.00 | 0.00 | 0.00 | 88 | 1012.2 |
| 20260509105004 | 11 | 175 | 4.8 | 11.3 | 0.00 | 0.00 | 0.00 | 88 | 1012.2 |
| 20260509104903 | 11 | 172 | 4.8 | 11.3 | 0.00 | 0.00 | 0.00 | 88 | 1012.2 |
| 20260509104802 | 11 | 169 | 4.8 | 11.3 | 0.00 | 0.00 | 0.00 | 88 | 1012.1 |
| 20260509104703 | 11 | 194 | 4.8 | 11.3 | 0.00 | 0.00 | 0.00 | 88 | 1012.1 |
| 20260509104604 | 11 | 167 | 4.8 | 9.7 | 0.00 | 0.00 | 0.00 | 88 | 1012.1 |
| 20260509104454 | 11 | 167 | 4.8 | 9.7 | 0.00 | 0.00 | 0.00 | 88 | 1012.1 |
| 20260509104353 | 11 | 167 | 4.8 | 9.7 | 0.00 | 0.00 | 0.00 | 88 | 1012.1 |
| 20260509104254 | 11 | 165 | 4.8 | 9.7 | 0.00 | 0.00 | 0.00 | 88 | 1012.1 |
| 20260509104154 | 11 | 163 | 4.8 | 9.7 | 0.00 | 0.00 | 0.00 | 88 | 1012.0 |
| 20260509104053 | 11 | 178 | 3.2 | 9.7 | 0.00 | 0.00 | 0.00 | 88 | 1012.0 |
| 20260509103952 | 11 | 138 | 3.2 | 9.7 | 0.00 | 0.00 | 0.00 | 88 | 1012.1 |
| 20260509103852 | 11 | 138 | 3.2 | 9.7 | 0.00 | 0.00 | 0.00 | 88 | 1012.1 |
| 20260509103749 | 10 | 140 | 3.2 | 9.7 | 0.00 | 0.00 | 0.00 | 88 | 1012.2 |
| 20260509103650 | 10 | 169 | 1.6 | 8.0 | 0.00 | 0.00 | 0.00 | 87 | 1012.1 |
| 20260509103547 | 10 | 169 | 1.6 | 8.0 | 0.00 | 0.00 | 0.00 | 87 | 1012.1 |
| 20260509103444 | 10 | 155 | 1.6 | 6.4 | 0.00 | 0.00 | 0.00 | 87 | 1012.1 |
| 20260509103344 | 10 | 185 | 1.6 | 6.4 | 0.00 | 0.00 | 0.00 | 87 | 1012.0 |
| 20260509103244 | 10 | 200 | 1.6 | 6.4 | 0.00 | 0.00 | 0.00 | 87 | 1012.0 |
| 20260509103143 | 11 | 235 | 0.0 | 3.2 | 0.00 | 0.00 | 0.00 | 87 | 1012.0 |
| 20260509103042 | 11 | 238 | 0.0 | 3.2 | 0.00 | 0.00 | 0.00 | 87 | 1012.1 |
| 20260509102933 | 11 | 237 | 1.6 | 4.8 | 0.00 | 0.00 | 0.00 | 87 | 1012.0 |
| 20260509102832 | 11 | 222 | 1.6 | 4.8 | 0.00 | 0.00 | 0.00 | 87 | 1012.1 |
| 20260509102731 | 11 | 222 | 1.6 | 4.8 | 0.00 | 0.00 | 0.00 | 87 | 1012.0 |
| 20260509102631 | 11 | 223 | 0.0 | 4.8 | 0.00 | 0.00 | 0.00 | 86 | 1012.0 |
| 20260509102532 | 11 | 223 | 1.6 | 4.8 | 0.00 | 0.00 | 0.00 | 86 | 1012.0 |
| 20260509102432 | 11 | 223 | 1.6 | 4.8 | 0.00 | 0.00 | 0.00 | 86 | 1011.8 |
| 20260509102328 | 11 | 223 | 0.0 | 4.8 | 0.00 | 0.00 | 0.00 | 86 | 1012.0 |
| 20260509102230 | 11 | 223 | 0.0 | 4.8 | 0.00 | 0.00 | 0.00 | 86 | 1011.8 |
| 20260509102127 | 11 | 222 | 0.0 | 4.8 | 0.00 | 0.00 | 0.00 | 86 | 1011.8 |
| 20260509102026 | 11 | 221 | 0.0 | 4.8 | 0.00 | 0.00 | 0.00 | 86 | 1011.8 |
| 20260509101924 | 11 | 244 | 0.0 | 4.8 | 0.00 | 0.00 | 0.00 | 86 | 1011.7 |
| 20260509101823 | 11 | 244 | 0.0 | 4.8 | 0.00 | 0.00 | 0.00 | 86 | 1011.7 |
| 20260509101723 | 11 | 244 | 0.0 | 4.8 | 0.00 | 0.00 | 0.00 | 86 | 1011.7 |
| 20260509101622 | 11 | 244 | 1.6 | 6.4 | 0.00 | 0.00 | 0.00 | 86 | 1011.7 |
| 20260509101520 | 11 | 242 | 1.6 | 8.0 | 0.00 | 0.00 | 0.00 | 86 | 1011.7 |
| 20260509101410 | 11 | 242 | 1.6 | 8.0 | 0.00 | 0.00 | 0.00 | 86 | 1011.8 |
| 20260509101310 | 11 | 242 | 1.6 | 8.0 | 0.00 | 0.00 | 0.00 | 86 | 1011.7 |
| 20260509101211 | 11 | 242 | 1.6 | 8.0 | 0.00 | 0.00 | 0.00 | 86 | 1011.6 |
| 20260509101111 | 11 | 242 | 1.6 | 8.0 | 0.00 | 0.00 | 0.00 | 86 | 1011.6 |
| 20260509101009 | 11 | 165 | 1.6 | 8.0 | 0.00 | 0.00 | 0.00 | 86 | 1011.6 |
| 20260509100905 | 11 | 165 | 1.6 | 8.0 | 0.00 | 0.00 | 0.00 | 86 | 1011.6 |
| 20260509100806 | 11 | 165 | 1.6 | 8.0 | 0.00 | 0.00 | 0.00 | 86 | 1011.6 |
| 20260509100705 | 11 | 165 | 1.6 | 8.0 | 0.00 | 0.00 | 0.00 | 86 | 1011.7 |
| 20260509100605 | 11 | 163 | 0.0 | 6.4 | 0.00 | 0.00 | 0.00 | 85 | 1011.7 |
| 20260509100503 | 11 | 161 | 1.6 | 6.4 | 0.00 | 0.00 | 0.00 | 85 | 1011.6 |
| 20260509100402 | 11 | 161 | 1.6 | 6.4 | 0.00 | 0.00 | 0.00 | 85 | 1011.6 |
| 20260509100301 | 11 | 161 | 0.0 | 6.4 | 0.00 | 0.00 | 0.00 | 85 | 1011.6 |
| 20260509100159 | 11 | 161 | 0.0 | 6.4 | 0.00 | 0.00 | 0.00 | 85 | 1011.6 |
| 20260509100059 | 11 | 161 | 0.0 | 3.2 | 0.00 | 0.00 | 0.00 | 85 | 1011.6 |
| 20260509095957 | 11 | 161 | 0.0 | 3.2 | 0.00 | 0.00 | 0.00 | 85 | 1011.6 |
| 20260509095851 | 11 | 160 | 0.0 | 3.2 | 0.00 | 0.00 | 0.00 | 85 | 1011.6 |
| 20260509095751 | 11 | 161 | 0.0 | 3.2 | 0.00 | 0.00 | 0.00 | 85 | 1011.6 |
| 20260509095652 | 11 | 161 | 0.0 | 3.2 | 0.00 | 0.00 | 0.00 | 85 | 1011.6 |
| 20260509095550 | 11 | 161 | 0.0 | 3.2 | 0.00 | 0.00 | 0.00 | 85 | 1011.6 |
| 20260509095447 | 11 | 161 | 0.0 | 3.2 | 0.00 | 0.00 | 0.00 | 85 | 1011.6 |
| 20260509095348 | 11 | 160 | 0.0 | 3.2 | 0.00 | 0.00 | 0.00 | 85 | 1011.6 |
| 20260509095246 | 11 | 160 | 0.0 | 3.2 | 0.00 | 0.00 | 0.00 | 85 | 1011.6 |
| 20260509095146 | 11 | 160 | 0.0 | 3.2 | 0.00 | 0.00 | 0.00 | 85 | 1011.6 |
| 20260509095044 | 11 | 160 | 0.0 | 3.2 | 0.00 | 0.00 | 0.00 | 84 | 1011.6 |
| 20260509094941 | 11 | 160 | 0.0 | 3.2 | 0.00 | 0.00 | 0.00 | 84 | 1011.6 |
| 20260509094838 | 11 | 160 | 0.0 | 3.2 | 0.00 | 0.00 | 0.00 | 84 | 1011.7 |
| 20260509094735 | 11 | 160 | 0.0 | 3.2 | 0.00 | 0.00 | 0.00 | 84 | 1011.6 |
| 20260509094636 | 11 | 160 | 0.0 | 3.2 | 0.00 | 0.00 | 0.00 | 84 | 1011.6 |
| 20260509094535 | 11 | 160 | 0.0 | 3.2 | 0.00 | 0.00 | 0.00 | 84 | 1011.5 |
| 20260509094436 | 11 | 160 | 0.0 | 3.2 | 0.00 | 0.00 | 0.00 | 84 | 1011.5 |
| 20260509094330 | 11 | 160 | 0.0 | 3.2 | 0.00 | 0.00 | 0.00 | 84 | 1011.5 |
| 20260509094230 | 11 | 160 | 0.0 | 3.2 | 0.00 | 0.00 | 0.00 | 84 | 1011.4 |
| 20260509094130 | 11 | 160 | 1.6 | 6.4 | 0.00 | 0.00 | 0.00 | 84 | 1011.5 |
| 20260509094027 | 11 | 160 | 1.6 | 6.4 | 0.00 | 0.00 | 0.00 | 84 | 1011.5 |
| 20260509093926 | 11 | 160 | 1.6 | 6.4 | 0.00 | 0.00 | 0.00 | 84 | 1011.4 |
| 20260509093826 | 11 | 160 | 1.6 | 6.4 | 0.00 | 0.00 | 0.00 | 84 | 1011.4 |
| 20260509093724 | 11 | 159 | 1.6 | 6.4 | 0.00 | 0.00 | 0.00 | 84 | 1011.4 |
| 20260509093624 | 11 | 159 | 1.6 | 8.0 | 0.00 | 0.00 | 0.00 | 84 | 1011.5 |
| 20260509093523 | 11 | 159 | 1.6 | 8.0 | 0.00 | 0.00 | 0.00 | 84 | 1011.4 |
| 20260509093419 | 11 | 159 | 1.6 | 8.0 | 0.00 | 0.00 | 0.00 | 84 | 1011.5 |
| 20260509093321 | 11 | 159 | 1.6 | 8.0 | 0.00 | 0.00 | 0.00 | 84 | 1011.6 |
| 20260509093217 | 11 | 159 | 1.6 | 8.0 | 0.00 | 0.00 | 0.00 | 84 | 1011.6 |
| 20260509093117 | 11 | 159 | 1.6 | 8.0 | 0.00 | 0.00 | 0.00 | 84 | 1011.6 |
| 20260509093016 | 11 | 159 | 1.6 | 8.0 | 0.00 | 0.00 | 0.00 | 84 | 1011.6 |
| 20260509092919 | 11 | 153 | 0.0 | 8.0 | 0.00 | 0.00 | 0.00 | 84 | 1011.6 |
| 20260509092804 | 11 | 153 | 0.0 | 8.0 | 0.00 | 0.00 | 0.00 | 84 | 1011.6 |
| 20260509092704 | 11 | 153 | 0.0 | 8.0 | 0.00 | 0.00 | 0.00 | 84 | 1011.6 |
| 20260509092603 | 11 | 242 | 0.0 | 0.0 | 0.00 | 0.00 | 0.00 | 84 | 1011.6 |
| 20260509092504 | 11 | 259 | 0.0 | 0.0 | 0.00 | 0.00 | 0.00 | 83 | 1011.6 |
| 20260509092404 | 11 | 263 | 0.0 | 0.0 | 0.00 | 0.00 | 0.00 | 83 | 1011.7 |
| 20260509092300 | 11 | 263 | 0.0 | 0.0 | 0.00 | 0.00 | 0.00 | 83 | 1011.8 |
| 20260509092157 | 11 | 263 | 0.0 | 0.0 | 0.00 | 0.00 | 0.00 | 83 | 1012.0 |
| 20260509092057 | 11 | 263 | 0.0 | 0.0 | 0.00 | 0.00 | 0.00 | 83 | 1012.0 |
| 20260509091956 | 11 | 265 | 0.0 | 0.0 | 0.00 | 0.00 | 0.00 | 83 | 1012.0 |
| 20260509091857 | 11 | 265 | 0.0 | 0.0 | 0.00 | 0.00 | 0.00 | 83 | 1012.1 |
| 20260509091757 | 11 | 265 | 0.0 | 0.0 | 0.00 | 0.00 | 0.00 | 83 | 1012.0 |
| 20260509091655 | 11 | 226 | 0.0 | 0.0 | 0.00 | 0.00 | 0.00 | 83 | 1012.0 |
| 20260509091554 | 11 | 227 | 0.0 | 0.0 | 0.00 | 0.00 | 0.00 | 83 | 1012.1 |
| 20260509091454 | 11 | 227 | 0.0 | 1.6 | 0.00 | 0.00 | 0.00 | 83 | 1012.1 |
| 20260509091352 | 11 | 227 | 0.0 | 1.6 | 0.00 | 0.00 | 0.00 | 83 | 1012.0 |
| 20260509091245 | 11 | 227 | 0.0 | 1.6 | 0.00 | 0.00 | 0.00 | 83 | 1011.8 |
| 20260509091146 | 11 | 227 | 0.0 | 1.6 | 0.00 | 0.00 | 0.00 | 83 | 1011.8 |
| 20260509091046 | 11 | 227 | 0.0 | 1.6 | 0.00 | 0.00 | 0.00 | 83 | 1011.8 |
| 20260509090943 | 11 | 227 | 0.0 | 1.6 | 0.00 | 0.00 | 0.00 | 83 | 1011.8 |
| 20260509090841 | 11 | 227 | 0.0 | 4.8 | 0.00 | 0.00 | 0.00 | 83 | 1011.7 |
| 20260509090742 | 11 | 226 | 0.0 | 4.8 | 0.00 | 0.00 | 0.00 | 83 | 1011.8 |
| 20260509090639 | 11 | 229 | 0.0 | 4.8 | 0.00 | 0.00 | 0.00 | 83 | 1011.8 |
| 20260509090540 | 11 | 188 | 0.0 | 4.8 | 0.00 | 0.00 | 0.00 | 83 | 1011.8 |
| 20260509090438 | 11 | 188 | 0.0 | 4.8 | 0.00 | 0.00 | 0.00 | 83 | 1011.8 |
| 20260509090336 | 11 | 188 | 0.0 | 4.8 | 0.00 | 0.00 | 0.00 | 83 | 1011.8 |
| 20260509090233 | 11 | 188 | 1.6 | 4.8 | 0.00 | 0.00 | 0.00 | 83 | 1011.8 |
| 20260509090129 | 11 | 188 | 1.6 | 4.8 | 0.00 | 0.00 | 0.00 | 83 | 1011.7 |
| 20260509090029 | 11 | 188 | 1.6 | 4.8 | 0.00 | 0.00 | 0.00 | 83 | 1011.7 |
| 20260509085929 | 11 | 188 | 1.6 | 4.8 | 0.00 | 0.00 | 0.00 | 83 | 1011.7 |
| 20260509085829 | 11 | 188 | 1.6 | 3.2 | 0.00 | 0.00 | 0.00 | 83 | 1011.7 |
| 20260509085722 | 11 | 188 | 1.6 | 3.2 | 0.00 | 0.00 | 0.00 | 83 | 1011.7 |
| 20260509085623 | 11 | 188 | 1.6 | 3.2 | 0.00 | 0.00 | 0.00 | 83 | 1011.7 |
| 20260509085523 | 11 | 188 | 1.6 | 3.2 | 0.00 | 0.00 | 0.00 | 83 | 1011.7 |
| 20260509085421 | 11 | 188 | 1.6 | 8.0 | 0.00 | 0.00 | 0.00 | 83 | 1011.7 |
| 20260509085320 | 11 | 192 | 1.6 | 8.0 | 0.00 | 0.00 | 0.00 | 83 | 1011.7 |
| 20260509085219 | 11 | 192 | 1.6 | 8.0 | 0.00 | 0.00 | 0.00 | 83 | 1011.7 |
| 20260509085118 | 11 | 192 | 1.6 | 8.0 | 0.00 | 0.00 | 0.00 | 83 | 1011.7 |
| 20260509085017 | 11 | 192 | 1.6 | 8.0 | 0.00 | 0.00 | 0.00 | 83 | 1011.8 |
| 20260509084915 | 11 | 192 | 1.6 | 8.0 | 0.00 | 0.00 | 0.00 | 83 | 1011.7 |
| 20260509084814 | 11 | 192 | 1.6 | 8.0 | 0.00 | 0.00 | 0.00 | 83 | 1011.8 |
| 20260509084708 | 11 | 192 | 1.6 | 8.0 | 0.00 | 0.00 | 0.00 | 83 | 1011.8 |
| 20260509084610 | 11 | 192 | 1.6 | 8.0 | 0.00 | 0.00 | 0.00 | 83 | 1011.8 |
| 20260509084508 | 11 | 185 | 1.6 | 8.0 | 0.00 | 0.00 | 0.00 | 83 | 1011.8 |
| 20260509084410 | 11 | 208 | 1.6 | 8.0 | 0.00 | 0.00 | 0.00 | 83 | 1011.8 |
| 20260509084307 | 11 | 210 | 1.6 | 8.0 | 0.00 | 0.00 | 0.00 | 82 | 1011.7 |
| 20260509084159 | 11 | 210 | 1.6 | 8.0 | 0.00 | 0.00 | 0.00 | 82 | 1011.7 |
| 20260509084100 | 11 | 269 | 1.6 | 8.0 | 0.00 | 0.00 | 0.00 | 82 | 1011.7 |
| 20260509083958 | 11 | 145 | 1.6 | 8.0 | 0.00 | 0.00 | 0.00 | 82 | 1011.7 |
| 20260509083858 | 11 | 145 | 1.6 | 8.0 | 0.00 | 0.00 | 0.00 | 82 | 1011.7 |
| 20260509083756 | 11 | 145 | 3.2 | 8.0 | 0.00 | 0.00 | 0.00 | 82 | 1011.8 |
| 20260509083652 | 11 | 145 | 3.2 | 8.0 | 0.00 | 0.00 | 0.00 | 82 | 1011.8 |
| 20260509083548 | 11 | 145 | 3.2 | 8.0 | 0.00 | 0.00 | 0.00 | 82 | 1011.8 |
| 20260509083449 | 11 | 145 | 3.2 | 8.0 | 0.00 | 0.00 | 0.00 | 82 | 1012.0 |
| 20260509083351 | 11 | 146 | 1.6 | 8.0 | 0.00 | 0.00 | 0.00 | 82 | 1011.8 |
| 20260509083250 | 11 | 155 | 1.6 | 8.0 | 0.00 | 0.00 | 0.00 | 82 | 1011.8 |
| 20260509083145 | 11 | 155 | 1.6 | 8.0 | 0.00 | 0.00 | 0.00 | 82 | 1011.8 |
| 20260509083046 | 11 | 155 | 1.6 | 8.0 | 0.00 | 0.00 | 0.00 | 82 | 1012.0 |
| 20260509082945 | 11 | 155 | 1.6 | 6.4 | 0.00 | 0.00 | 0.00 | 82 | 1012.0 |
| 20260509082844 | 11 | 155 | 1.6 | 4.8 | 0.00 | 0.00 | 0.00 | 82 | 1012.0 |
| 20260509082744 | 11 | 155 | 0.0 | 4.8 | 0.00 | 0.00 | 0.00 | 81 | 1012.0 |
| 20260509082637 | 11 | 154 | 0.0 | 4.8 | 0.00 | 0.00 | 0.00 | 81 | 1012.0 |
| 20260509082537 | 11 | 154 | 0.0 | 3.2 | 0.00 | 0.00 | 0.00 | 81 | 1012.1 |
| 20260509082437 | 11 | 154 | 0.0 | 3.2 | 0.00 | 0.00 | 0.00 | 81 | 1012.1 |
| 20260509082335 | 11 | 155 | 0.0 | 4.8 | 0.00 | 0.00 | 0.00 | 81 | 1012.1 |
| 20260509082234 | 11 | 155 | 1.6 | 4.8 | 0.00 | 0.00 | 0.00 | 81 | 1012.2 |
| 20260509082132 | 11 | 155 | 1.6 | 4.8 | 0.00 | 0.00 | 0.00 | 81 | 1012.2 |
| 20260509082031 | 11 | 155 | 1.6 | 4.8 | 0.00 | 0.00 | 0.00 | 81 | 1012.2 |
| 20260509081931 | 11 | 155 | 1.6 | 4.8 | 0.00 | 0.00 | 0.00 | 81 | 1012.2 |
| 20260509081830 | 11 | 155 | 1.6 | 4.8 | 0.00 | 0.00 | 0.00 | 81 | 1012.3 |
| 20260509081727 | 11 | 155 | 1.6 | 4.8 | 0.00 | 0.00 | 0.00 | 81 | 1012.3 |
| 20260509081626 | 11 | 155 | 1.6 | 4.8 | 0.00 | 0.00 | 0.00 | 81 | 1012.3 |
| 20260509081526 | 11 | 155 | 1.6 | 4.8 | 0.00 | 0.00 | 0.00 | 81 | 1012.4 |
| 20260509081423 | 11 | 155 | 1.6 | 4.8 | 0.00 | 0.00 | 0.00 | 81 | 1012.3 |
| 20260509081324 | 11 | 111 | 1.6 | 4.8 | 0.00 | 0.00 | 0.00 | 80 | 1012.3 |
| 20260509081222 | 11 | 103 | 0.0 | 4.8 | 0.00 | 0.00 | 0.00 | 80 | 1012.3 |
| 20260509081112 | 11 | 103 | 0.0 | 4.8 | 0.00 | 0.00 | 0.00 | 80 | 1012.4 |
| 20260509081011 | 11 | 101 | 0.0 | 12.9 | 0.00 | 0.00 | 0.00 | 80 | 1012.3 |
| 20260509080911 | 11 | 355 | 0.0 | 12.9 | 0.00 | 0.00 | 0.00 | 80 | 1012.4 |
| 20260509080812 | 11 | 355 | 0.0 | 12.9 | 0.00 | 0.00 | 0.00 | 80 | 1012.3 |
| 20260509080712 | 11 | 355 | 0.0 | 12.9 | 0.00 | 0.00 | 0.00 | 81 | 1012.4 |
| 20260509080605 | 11 | 355 | 1.6 | 12.9 | 0.00 | 0.00 | 0.00 | 80 | 1012.4 |
| 20260509080504 | 11 | 355 | 1.6 | 12.9 | 0.00 | 0.00 | 0.00 | 80 | 1012.4 |
| 20260509080406 | 11 | 355 | 1.6 | 12.9 | 0.00 | 0.00 | 0.00 | 80 | 1012.4 |
| 20260509080305 | 11 | 355 | 1.6 | 12.9 | 0.00 | 0.00 | 0.00 | 80 | 1012.5 |
| 20260509080205 | 11 | 355 | 3.2 | 12.9 | 0.00 | 0.00 | 0.00 | 80 | 1012.5 |
| 20260509080100 | 11 | 355 | 3.2 | 12.9 | 0.00 | 0.00 | 0.00 | 80 | 1012.5 |
| 20260509080002 | 11 | 355 | 3.2 | 14.5 | 0.00 | 0.00 | 0.00 | 81 | 1012.5 |
| 20260509075900 | 11 | 355 | 3.2 | 14.5 | 0.00 | 0.00 | 0.00 | 80 | 1012.4 |
| 20260509075802 | 11 | 355 | 3.2 | 14.5 | 0.00 | 0.00 | 0.00 | 80 | 1012.4 |
| 20260509075659 | 11 | 147 | 4.8 | 14.5 | 0.00 | 0.00 | 0.00 | 81 | 1012.4 |
| 20260509075551 | 11 | 147 | 4.8 | 14.5 | 0.00 | 0.00 | 0.00 | 80 | 1012.4 |
| 20260509075450 | 11 | 150 | 4.8 | 14.5 | 0.00 | 0.00 | 0.00 | 81 | 1012.5 |
| 20260509075351 | 11 | 147 | 4.8 | 14.5 | 0.00 | 0.00 | 0.00 | 80 | 1012.5 |
| 20260509075252 | 11 | 132 | 4.8 | 14.5 | 0.00 | 0.00 | 0.00 | 80 | 1012.5 |
| 20260509075149 | 11 | 165 | 4.8 | 14.5 | 0.00 | 0.00 | 0.00 | 81 | 1012.5 |
| 20260509075045 | 11 | 124 | 4.8 | 14.5 | 0.00 | 0.00 | 0.00 | 81 | 1012.4 |
| 20260509074944 | 11 | 182 | 4.8 | 14.5 | 0.00 | 0.00 | 0.00 | 80 | 1012.5 |
| 20260509074845 | 11 | 175 | 4.8 | 14.5 | 0.00 | 0.00 | 0.00 | 81 | 1012.4 |
| 20260509074745 | 11 | 180 | 4.8 | 14.5 | 0.00 | 0.00 | 0.00 | 81 | 1012.4 |
| 20260509074644 | 11 | 173 | 4.8 | 14.5 | 0.00 | 0.00 | 0.00 | 80 | 1012.4 |
| 20260509074540 | 11 | 194 | 4.8 | 14.5 | 0.00 | 0.00 | 0.00 | 80 | 1012.5 |
| 20260509074440 | 11 | 164 | 4.8 | 14.5 | 0.00 | 0.00 | 0.00 | 81 | 1012.5 |
| 20260509074339 | 11 | 189 | 3.2 | 14.5 | 0.00 | 0.00 | 0.00 | 81 | 1012.4 |
| 20260509074239 | 11 | 166 | 3.2 | 14.5 | 0.00 | 0.00 | 0.00 | 81 | 1012.5 |
| 20260509074138 | 11 | 171 | 3.2 | 14.5 | 0.00 | 0.00 | 0.00 | 81 | 1012.4 |
| 20260509074029 | 11 | 171 | 3.2 | 14.5 | 0.00 | 0.00 | 0.00 | 81 | 1012.4 |
| 20260509073930 | 11 | 211 | 1.6 | 11.3 | 0.00 | 0.00 | 0.00 | 81 | 1012.3 |
| 20260509073829 | 11 | 153 | 1.6 | 11.3 | 0.00 | 0.00 | 0.00 | 81 | 1012.4 |
| 20260509073729 | 11 | 160 | 1.6 | 8.0 | 0.00 | 0.00 | 0.00 | 81 | 1012.4 |
| 20260509073628 | 11 | 171 | 1.6 | 8.0 | 0.00 | 0.00 | 0.00 | 81 | 1012.4 |
| 20260509073523 | 11 | 177 | 1.6 | 8.0 | 0.00 | 0.00 | 0.00 | 81 | 1012.5 |
| 20260509073421 | 11 | 177 | 1.6 | 8.0 | 0.00 | 0.00 | 0.00 | 81 | 1012.5 |
| 20260509073321 | 11 | 178 | 3.2 | 8.0 | 0.00 | 0.00 | 0.00 | 81 | 1012.5 |
| 20260509073220 | 11 | 178 | 3.2 | 8.0 | 0.00 | 0.00 | 0.00 | 81 | 1012.5 |
| 20260509073122 | 12 | 178 | 3.2 | 8.0 | 0.00 | 0.00 | 0.00 | 81 | 1012.5 |
| 20260509073016 | 12 | 178 | 3.2 | 8.0 | 0.00 | 0.00 | 0.00 | 81 | 1012.5 |
| 20260509072915 | 11 | 178 | 3.2 | 14.5 | 0.00 | 0.00 | 0.00 | 81 | 1012.5 |
| 20260509072816 | 12 | 167 | 3.2 | 14.5 | 0.00 | 0.00 | 0.00 | 81 | 1012.4 |
| 20260509072714 | 12 | 163 | 3.2 | 14.5 | 0.00 | 0.00 | 0.00 | 81 | 1012.4 |
| 20260509072616 | 12 | 155 | 4.8 | 14.5 | 0.00 | 0.00 | 0.00 | 81 | 1012.4 |
| 20260509072504 | 12 | 154 | 4.8 | 14.5 | 0.00 | 0.00 | 0.00 | 81 | 1012.5 |
| 20260509072406 | 12 | 155 | 4.8 | 14.5 | 0.00 | 0.00 | 0.00 | 81 | 1012.5 |
| 20260509072306 | 12 | 154 | 4.8 | 14.5 | 0.00 | 0.00 | 0.00 | 81 | 1012.4 |
| 20260509072205 | 12 | 142 | 4.8 | 14.5 | 0.00 | 0.00 | 0.00 | 81 | 1012.4 |
| 20260509072106 | 12 | 142 | 4.8 | 14.5 | 0.00 | 0.00 | 0.00 | 81 | 1012.5 |
| 20260509072000 | 12 | 173 | 4.8 | 12.9 | 0.00 | 0.00 | 0.00 | 81 | 1012.5 |
| 20260509071901 | 12 | 170 | 4.8 | 14.5 | 0.00 | 0.00 | 0.00 | 81 | 1012.3 |
| 20260509071800 | 12 | 244 | 4.8 | 14.5 | 0.00 | 0.00 | 0.00 | 81 | 1012.4 |
| 20260509071659 | 12 | 136 | 4.8 | 14.5 | 0.00 | 0.00 | 0.00 | 81 | 1012.4 |
| 20260509071600 | 12 | 176 | 4.8 | 14.5 | 0.00 | 0.00 | 0.00 | 81 | 1012.4 |
| 20260509071454 | 12 | 172 | 4.8 | 14.5 | 0.00 | 0.00 | 0.00 | 81 | 1012.5 |
| 20260509071353 | 12 | 171 | 4.8 | 14.5 | 0.00 | 0.00 | 0.00 | 81 | 1012.5 |
| 20260509071253 | 12 | 171 | 6.4 | 14.5 | 0.00 | 0.00 | 0.00 | 81 | 1012.5 |
| 20260509071153 | 12 | 163 | 6.4 | 14.5 | 0.00 | 0.00 | 0.00 | 81 | 1012.5 |
| 20260509071053 | 12 | 190 | 6.4 | 14.5 | 0.00 | 0.00 | 0.00 | 81 | 1012.5 |
| 20260509070944 | 12 | 161 | 4.8 | 14.5 | 0.00 | 0.00 | 0.00 | 81 | 1012.5 |
| 20260509070842 | 12 | 144 | 4.8 | 11.3 | 0.00 | 0.00 | 0.00 | 81 | 1012.5 |
| 20260509070743 | 12 | 161 | 4.8 | 11.3 | 0.00 | 0.00 | 0.00 | 81 | 1012.6 |
| 20260509070643 | 12 | 163 | 4.8 | 11.3 | 0.00 | 0.00 | 0.00 | 81 | 1012.6 |
| 20260509070544 | 12 | 163 | 4.8 | 11.3 | 0.00 | 0.00 | 0.00 | 81 | 1012.6 |
| 20260509070440 | 12 | 119 | 4.8 | 11.3 | 0.00 | 0.00 | 0.00 | 81 | 1012.7 |
| 20260509070337 | 12 | 175 | 4.8 | 11.3 | 0.00 | 0.00 | 0.00 | 80 | 1012.7 |
| 20260509070236 | 12 | 135 | 4.8 | 11.3 | 0.00 | 0.00 | 0.00 | 80 | 1012.8 |
| 20260509070137 | 12 | 138 | 4.8 | 11.3 | 0.00 | 0.00 | 0.00 | 80 | 1012.8 |
| 20260509070038 | 12 | 157 | 4.8 | 12.9 | 0.00 | 0.00 | 0.00 | 80 | 1012.8 |
| 20260509065931 | 12 | 138 | 4.8 | 12.9 | 0.00 | 0.00 | 0.00 | 80 | 1012.8 |
| 20260509065830 | 12 | 169 | 4.8 | 12.9 | 0.00 | 0.00 | 0.00 | 80 | 1012.8 |
| 20260509065731 | 12 | 134 | 4.8 | 12.9 | 0.00 | 0.00 | 0.00 | 80 | 1012.8 |
| 20260509065632 | 12 | 160 | 3.2 | 12.9 | 0.00 | 0.00 | 0.00 | 80 | 1012.7 |
| 20260509065532 | 12 | 168 | 3.2 | 12.9 | 0.00 | 0.00 | 0.00 | 79 | 1012.8 |
| 20260509065420 | 12 | 156 | 4.8 | 12.9 | 0.00 | 0.00 | 0.00 | 79 | 1012.9 |
| 20260509065321 | 12 | 152 | 4.8 | 12.9 | 0.00 | 0.00 | 0.00 | 79 | 1012.9 |
| 20260509065221 | 12 | 151 | 4.8 | 12.9 | 0.00 | 0.00 | 0.00 | 79 | 1012.9 |
| 20260509065120 | 12 | 167 | 4.8 | 12.9 | 0.00 | 0.00 | 0.00 | 80 | 1012.9 |
| 20260509065021 | 12 | 169 | 4.8 | 12.9 | 0.00 | 0.00 | 0.00 | 80 | 1012.9 |
| 20260509064922 | 12 | 177 | 4.8 | 12.9 | 0.00 | 0.00 | 0.00 | 80 | 1013.0 |
| 20260509064820 | 12 | 190 | 6.4 | 14.5 | 0.00 | 0.00 | 0.00 | 80 | 1013.0 |
| 20260509064717 | 12 | 134 | 6.4 | 14.5 | 0.00 | 0.00 | 0.00 | 80 | 1013.0 |
| 20260509064618 | 12 | 134 | 6.4 | 14.5 | 0.00 | 0.00 | 0.00 | 79 | 1012.9 |
| 20260509064515 | 12 | 174 | 6.4 | 14.5 | 0.00 | 0.00 | 0.00 | 79 | 1012.9 |
| 20260509064410 | 12 | 164 | 4.8 | 14.5 | 0.00 | 0.00 | 0.00 | 80 | 1012.9 |
| 20260509064308 | 12 | 146 | 4.8 | 14.5 | 0.00 | 0.00 | 0.00 | 80 | 1013.0 |
| 20260509064208 | 12 | 167 | 4.8 | 14.5 | 0.00 | 0.00 | 0.00 | 80 | 1013.0 |
| 20260509064110 | 12 | 168 | 4.8 | 14.5 | 0.00 | 0.00 | 0.00 | 80 | 1013.0 |
| 20260509064027 | 12 | 184 | 4.8 | 14.5 | 0.00 | 0.00 | 0.00 | 80 | 1013.0 |
| 20260509063900 | 12 | 184 | 4.8 | 14.5 | 0.00 | 0.00 | 0.00 | 80 | 1013.1 |
| 20260509063800 | 12 | 130 | 4.8 | 11.3 | 0.00 | 0.00 | 0.00 | 80 | 1013.1 |
| 20260509063700 | 12 | 144 | 4.8 | 11.3 | 0.00 | 0.00 | 0.00 | 80 | 1013.2 |
| 20260509063559 | 12 | 142 | 4.8 | 11.3 | 0.00 | 0.00 | 0.00 | 80 | 1013.3 |
| 20260509063459 | 12 | 142 | 4.8 | 11.3 | 0.00 | 0.00 | 0.00 | 80 | 1013.2 |
| 20260509063357 | 12 | 148 | 4.8 | 11.3 | 0.00 | 0.00 | 0.00 | 80 | 1013.2 |
| 20260509063257 | 12 | 146 | 4.8 | 11.3 | 0.00 | 0.00 | 0.00 | 80 | 1013.3 |
| 20260509063155 | 12 | 154 | 4.8 | 12.9 | 0.00 | 0.00 | 0.00 | 80 | 1013.3 |
| 20260509063056 | 12 | 156 | 6.4 | 12.9 | 0.00 | 0.00 | 0.00 | 80 | 1013.3 |
| 20260509062953 | 12 | 153 | 4.8 | 12.9 | 0.00 | 0.00 | 0.00 | 80 | 1013.3 |
| 20260509062848 | 12 | 130 | 4.8 | 12.9 | 0.00 | 0.00 | 0.00 | 79 | 1013.4 |
| 20260509062748 | 12 | 165 | 6.4 | 12.9 | 0.00 | 0.00 | 0.00 | 79 | 1013.3 |
| 20260509062648 | 12 | 166 | 4.8 | 17.7 | 0.00 | 0.00 | 0.00 | 79 | 1013.4 |
| 20260509062547 | 12 | 161 | 6.4 | 17.7 | 0.00 | 0.00 | 0.00 | 79 | 1013.4 |
| 20260509062447 | 12 | 128 | 4.8 | 17.7 | 0.00 | 0.00 | 0.00 | 79 | 1013.4 |
| 20260509062346 | 12 | 165 | 4.8 | 17.7 | 0.00 | 0.00 | 0.00 | 79 | 1013.4 |
| 20260509062246 | 12 | 166 | 4.8 | 17.7 | 0.00 | 0.00 | 0.00 | 79 | 1013.3 |
| 20260509062142 | 12 | 192 | 4.8 | 17.7 | 0.00 | 0.00 | 0.00 | 79 | 1013.4 |
| 20260509062046 | 12 | 210 | 4.8 | 17.7 | 0.00 | 0.00 | 0.00 | 79 | 1013.4 |
| 20260509061944 | 12 | 183 | 4.8 | 17.7 | 0.00 | 0.00 | 0.00 | 79 | 1013.3 |
| 20260509061844 | 12 | 161 | 4.8 | 17.7 | 0.00 | 0.00 | 0.00 | 79 | 1013.4 |
| 20260509061742 | 12 | 171 | 4.8 | 17.7 | 0.00 | 0.00 | 0.00 | 79 | 1013.3 |
| 20260509061644 | 12 | 169 | 4.8 | 12.9 | 0.00 | 0.00 | 0.00 | 79 | 1013.4 |
| 20260509061542 | 12 | 169 | 4.8 | 12.9 | 0.00 | 0.00 | 0.00 | 79 | 1013.3 |
| 20260509061441 | 12 | 161 | 4.8 | 14.5 | 0.00 | 0.00 | 0.00 | 79 | 1013.3 |
| 20260509061340 | 12 | 176 | 4.8 | 14.5 | 0.00 | 0.00 | 0.00 | 79 | 1013.4 |
| 20260509061240 | 12 | 125 | 4.8 | 14.5 | 0.00 | 0.00 | 0.00 | 79 | 1013.3 |
| 20260509061142 | 12 | 166 | 4.8 | 14.5 | 0.00 | 0.00 | 0.00 | 79 | 1013.4 |
| 20260509061038 | 12 | 167 | 4.8 | 14.5 | 0.00 | 0.00 | 0.00 | 79 | 1013.4 |
| 20260509060939 | 12 | 180 | 4.8 | 14.5 | 0.00 | 0.00 | 0.00 | 79 | 1013.4 |
| 20260509060838 | 12 | 134 | 4.8 | 14.5 | 0.00 | 0.00 | 0.00 | 79 | 1013.4 |
| 20260509060740 | 12 | 119 | 4.8 | 14.5 | 0.00 | 0.00 | 0.00 | 79 | 1013.4 |
| 20260509060632 | 12 | 161 | 4.8 | 14.5 | 0.00 | 0.00 | 0.00 | 79 | 1013.4 |
| 20260509060532 | 12 | 128 | 4.8 | 14.5 | 0.00 | 0.00 | 0.00 | 79 | 1013.4 |
| 20260509060433 | 12 | 153 | 4.8 | 11.3 | 0.00 | 0.00 | 0.00 | 79 | 1013.4 |
| 20260509060334 | 12 | 176 | 4.8 | 14.5 | 0.00 | 0.00 | 0.00 | 79 | 1013.4 |
| 20260509060234 | 12 | 147 | 4.8 | 14.5 | 0.00 | 0.00 | 0.00 | 79 | 1013.4 |
| 20260509060130 | 12 | 142 | 4.8 | 14.5 | 0.00 | 0.00 | 0.00 | 79 | 1013.3 |
| 20260509060027 | 12 | 141 | 4.8 | 14.5 | 0.00 | 0.00 | 0.00 | 78 | 1013.4 |
| 20260509055928 | 12 | 139 | 4.8 | 14.5 | 0.00 | 0.00 | 0.00 | 78 | 1013.4 |
| 20260509055828 | 12 | 154 | 4.8 | 14.5 | 0.00 | 0.00 | 0.00 | 78 | 1013.4 |
| 20260509055727 | 12 | 117 | 4.8 | 16.1 | 0.00 | 0.00 | 0.00 | 78 | 1013.4 |
| 20260509055622 | 12 | 115 | 4.8 | 16.1 | 0.00 | 0.00 | 0.00 | 78 | 1013.5 |
| 20260509055521 | 13 | 155 | 4.8 | 16.1 | 0.00 | 0.00 | 0.00 | 78 | 1013.5 |
| 20260509055421 | 13 | 137 | 4.8 | 16.1 | 0.00 | 0.00 | 0.00 | 78 | 1013.5 |
| 20260509055322 | 13 | 157 | 4.8 | 16.1 | 0.00 | 0.00 | 0.00 | 78 | 1013.4 |
| 20260509055221 | 13 | 161 | 4.8 | 16.1 | 0.00 | 0.00 | 0.00 | 77 | 1013.5 |
| 20260509055120 | 13 | 111 | 4.8 | 16.1 | 0.00 | 0.00 | 0.00 | 77 | 1013.5 |
| 20260509055022 | 13 | 180 | 4.8 | 16.1 | 0.00 | 0.00 | 0.00 | 77 | 1013.7 |
| 20260509054918 | 13 | 205 | 4.8 | 16.1 | 0.00 | 0.00 | 0.00 | 77 | 1013.7 |
| 20260509054820 | 13 | 188 | 4.8 | 16.1 | 0.00 | 0.00 | 0.00 | 77 | 1013.7 |
| 20260509054719 | 13 | 153 | 6.4 | 16.1 | 0.00 | 0.00 | 0.00 | 77 | 1013.7 |
| 20260509054616 | 13 | 165 | 4.8 | 16.1 | 0.00 | 0.00 | 0.00 | 78 | 1013.8 |
| 20260509054516 | 13 | 137 | 4.8 | 16.1 | 0.00 | 0.00 | 0.00 | 77 | 1013.8 |
| 20260509054412 | 13 | 161 | 4.8 | 16.1 | 0.00 | 0.00 | 0.00 | 77 | 1013.8 |
| 20260509054312 | 13 | 190 | 4.8 | 16.1 | 0.00 | 0.00 | 0.00 | 77 | 1013.7 |
| 20260509054213 | 13 | 158 | 4.8 | 11.3 | 0.00 | 0.00 | 0.00 | 78 | 1013.8 |
| 20260509054111 | 13 | 165 | 4.8 | 14.5 | 0.00 | 0.00 | 0.00 | 77 | 1013.8 |
| 20260509054009 | 13 | 196 | 4.8 | 14.5 | 0.00 | 0.00 | 0.00 | 77 | 1013.9 |
| 20260509053910 | 13 | 134 | 4.8 | 14.5 | 0.00 | 0.00 | 0.00 | 77 | 1013.8 |
| 20260509053810 | 13 | 160 | 4.8 | 14.5 | 0.00 | 0.00 | 0.00 | 77 | 1013.9 |
| 20260509053709 | 13 | 172 | 4.8 | 14.5 | 0.00 | 0.00 | 0.00 | 77 | 1013.9 |
| 20260509053609 | 13 | 162 | 4.8 | 14.5 | 0.00 | 0.00 | 0.00 | 77 | 1013.8 |
| 20260509053509 | 13 | 125 | 4.8 | 14.5 | 0.00 | 0.00 | 0.00 | 77 | 1013.9 |
| 20260509053403 | 13 | 141 | 4.8 | 14.5 | 0.00 | 0.00 | 0.00 | 77 | 1013.9 |
| 20260509053303 | 13 | 180 | 4.8 | 14.5 | 0.00 | 0.00 | 0.00 | 77 | 1013.8 |
| 20260509053204 | 13 | 180 | 4.8 | 14.5 | 0.00 | 0.00 | 0.00 | 77 | 1013.9 |
| 20260509053104 | 13 | 156 | 4.8 | 9.7 | 0.00 | 0.00 | 0.00 | 77 | 1013.9 |
| 20260509053004 | 13 | 150 | 3.2 | 9.7 | 0.00 | 0.00 | 0.00 | 77 | 1013.9 |
| 20260509052900 | 13 | 141 | 3.2 | 9.7 | 0.00 | 0.00 | 0.00 | 77 | 1013.9 |
| 20260509052757 | 13 | 163 | 3.2 | 9.7 | 0.00 | 0.00 | 0.00 | 77 | 1014.0 |
| 20260509052657 | 13 | 155 | 3.2 | 9.7 | 0.00 | 0.00 | 0.00 | 77 | 1013.9 |
| 20260509052558 | 13 | 165 | 3.2 | 9.7 | 0.00 | 0.00 | 0.00 | 77 | 1013.9 |
| 20260509052455 | 13 | 165 | 3.2 | 9.7 | 0.00 | 0.00 | 0.00 | 77 | 1013.9 |
| 20260509052354 | 13 | 183 | 3.2 | 9.7 | 0.00 | 0.00 | 0.00 | 77 | 1014.0 |
| 20260509052255 | 13 | 166 | 3.2 | 9.7 | 0.00 | 0.00 | 0.00 | 77 | 1013.9 |
| 20260509052154 | 13 | 246 | 3.2 | 9.7 | 0.00 | 0.00 | 0.00 | 76 | 1014.0 |
| 20260509052056 | 13 | 174 | 1.6 | 8.0 | 0.00 | 0.00 | 0.00 | 76 | 1013.9 |
| 20260509051956 | 13 | 159 | 1.6 | 8.0 | 0.00 | 0.00 | 0.00 | 76 | 1014.0 |
| 20260509051856 | 13 | 159 | 3.2 | 8.0 | 0.00 | 0.00 | 0.00 | 77 | 1014.0 |
| 20260509051752 | 13 | 159 | 3.2 | 8.0 | 0.00 | 0.00 | 0.00 | 76 | 1014.0 |
| 20260509051653 | 13 | 159 | 3.2 | 8.0 | 0.00 | 0.00 | 0.00 | 76 | 1014.0 |
| 20260509051552 | 13 | 158 | 3.2 | 8.0 | 0.00 | 0.00 | 0.00 | 76 | 1014.1 |
| 20260509051452 | 13 | 158 | 3.2 | 8.0 | 0.00 | 0.00 | 0.00 | 76 | 1014.1 |
| 20260509051349 | 13 | 104 | 3.2 | 9.7 | 0.00 | 0.00 | 0.00 | 76 | 1014.1 |
| 20260509051247 | 13 | 104 | 3.2 | 9.7 | 0.00 | 0.00 | 0.00 | 76 | 1014.1 |
| 20260509051145 | 13 | 188 | 3.2 | 9.7 | 0.00 | 0.00 | 0.00 | 76 | 1014.1 |
| 20260509051045 | 13 | 190 | 3.2 | 9.7 | 0.00 | 0.00 | 0.00 | 76 | 1014.1 |
| 20260509050944 | 13 | 194 | 3.2 | 9.7 | 0.00 | 0.00 | 0.00 | 76 | 1014.1 |
| 20260509050845 | 13 | 196 | 3.2 | 9.7 | 0.00 | 0.00 | 0.00 | 76 | 1014.1 |
| 20260509050745 | 13 | 139 | 3.2 | 9.7 | 0.00 | 0.00 | 0.00 | 76 | 1014.1 |
| 20260509050644 | 13 | 139 | 3.2 | 9.7 | 0.00 | 0.00 | 0.00 | 76 | 1014.1 |
| 20260509050544 | 13 | 161 | 3.2 | 9.7 | 0.00 | 0.00 | 0.00 | 76 | 1014.1 |
| 20260509050445 | 13 | 163 | 3.2 | 11.3 | 0.00 | 0.00 | 0.00 | 76 | 1014.2 |
| 20260509050345 | 13 | 168 | 3.2 | 11.3 | 0.00 | 0.00 | 0.00 | 76 | 1014.1 |
| 20260509050244 | 13 | 158 | 3.2 | 11.3 | 0.00 | 0.00 | 0.00 | 76 | 1014.1 |
| 20260509050144 | 13 | 161 | 3.2 | 11.3 | 0.00 | 0.00 | 0.00 | 76 | 1014.2 |
| 20260509050046 | 13 | 171 | 3.2 | 11.3 | 0.00 | 0.00 | 0.00 | 76 | 1014.2 |
| 20260509045941 | 13 | 171 | 3.2 | 11.3 | 0.00 | 0.00 | 0.00 | 76 | 1014.2 |
| 20260509045840 | 13 | 174 | 3.2 | 11.3 | 0.00 | 0.00 | 0.00 | 77 | 1014.2 |
| 20260509045741 | 13 | 174 | 3.2 | 11.3 | 0.00 | 0.00 | 0.00 | 77 | 1014.2 |
| 20260509045641 | 13 | 170 | 3.2 | 11.3 | 0.00 | 0.00 | 0.00 | 76 | 1014.3 |
| 20260509045541 | 13 | 170 | 3.2 | 11.3 | 0.00 | 0.00 | 0.00 | 76 | 1014.2 |
| 20260509045440 | 13 | 183 | 3.2 | 12.9 | 0.00 | 0.00 | 0.00 | 77 | 1014.2 |
| 20260509045339 | 13 | 180 | 4.8 | 14.5 | 0.00 | 0.00 | 0.00 | 77 | 1014.3 |
| 20260509045238 | 13 | 165 | 4.8 | 14.5 | 0.00 | 0.00 | 0.00 | 77 | 1014.3 |
| 20260509045140 | 13 | 171 | 4.8 | 14.5 | 0.00 | 0.00 | 0.00 | 77 | 1014.3 |
| 20260509045039 | 13 | 225 | 4.8 | 14.5 | 0.00 | 0.00 | 0.00 | 77 | 1014.3 |
| 20260509044940 | 13 | 171 | 4.8 | 14.5 | 0.00 | 0.00 | 0.00 | 77 | 1014.4 |
| 20260509044838 | 13 | 171 | 4.8 | 14.5 | 0.00 | 0.00 | 0.00 | 77 | 1014.4 |
| 20260509044739 | 13 | 184 | 4.8 | 14.5 | 0.00 | 0.00 | 0.00 | 77 | 1014.3 |
| 20260509044638 | 13 | 182 | 4.8 | 14.5 | 0.00 | 0.00 | 0.00 | 76 | 1014.3 |
| 20260509044540 | 13 | 151 | 4.8 | 14.5 | 0.00 | 0.00 | 0.00 | 76 | 1014.3 |
| 20260509044438 | 13 | 175 | 3.2 | 14.5 | 0.00 | 0.00 | 0.00 | 76 | 1014.3 |
| 20260509044339 | 13 | 193 | 3.2 | 14.5 | 0.00 | 0.00 | 0.00 | 77 | 1014.3 |
| 20260509044240 | 13 | 159 | 3.2 | 14.5 | 0.00 | 0.00 | 0.00 | 76 | 1014.3 |
| 20260509044139 | 13 | 159 | 3.2 | 14.5 | 0.00 | 0.00 | 0.00 | 76 | 1014.3 |
| 20260509044039 | 13 | 123 | 3.2 | 14.5 | 0.00 | 0.00 | 0.00 | 76 | 1014.4 |
| 20260509043939 | 13 | 190 | 3.2 | 9.7 | 0.00 | 0.00 | 0.00 | 77 | 1014.3 |
| 20260509043839 | 13 | 165 | 3.2 | 9.7 | 0.00 | 0.00 | 0.00 | 76 | 1014.4 |
| 20260509043739 | 13 | 165 | 3.2 | 9.7 | 0.00 | 0.00 | 0.00 | 76 | 1014.3 |
| 20260509043639 | 13 | 165 | 3.2 | 9.7 | 0.00 | 0.00 | 0.00 | 76 | 1014.3 |
| 20260509043539 | 13 | 167 | 3.2 | 9.7 | 0.00 | 0.00 | 0.00 | 76 | 1014.3 |
| 20260509043440 | 13 | 167 | 3.2 | 9.7 | 0.00 | 0.00 | 0.00 | 76 | 1014.3 |
| 20260509043336 | 13 | 169 | 3.2 | 9.7 | 0.00 | 0.00 | 0.00 | 76 | 1014.4 |
| 20260509043234 | 13 | 138 | 3.2 | 9.7 | 0.00 | 0.00 | 0.00 | 76 | 1014.3 |
| 20260509043134 | 13 | 169 | 3.2 | 12.9 | 0.00 | 0.00 | 0.00 | 76 | 1014.4 |
| 20260509043034 | 13 | 136 | 3.2 | 12.9 | 0.00 | 0.00 | 0.00 | 76 | 1014.3 |
| 20260509042935 | 13 | 178 | 3.2 | 12.9 | 0.00 | 0.00 | 0.00 | 76 | 1014.3 |
| 20260509042834 | 13 | 175 | 3.2 | 12.9 | 0.00 | 0.00 | 0.00 | 76 | 1014.3 |
| 20260509042736 | 13 | 184 | 3.2 | 12.9 | 0.00 | 0.00 | 0.00 | 76 | 1014.4 |
| 20260509042634 | 13 | 155 | 4.8 | 12.9 | 0.00 | 0.00 | 0.00 | 76 | 1014.3 |
| 20260509042534 | 13 | 155 | 4.8 | 12.9 | 0.00 | 0.00 | 0.00 | 76 | 1014.3 |
| 20260509042436 | 13 | 158 | 4.8 | 12.9 | 0.00 | 0.00 | 0.00 | 76 | 1014.2 |
| 20260509042336 | 13 | 121 | 4.8 | 12.9 | 0.00 | 0.00 | 0.00 | 76 | 1014.3 |
| 20260509042234 | 13 | 204 | 4.8 | 12.9 | 0.00 | 0.00 | 0.00 | 76 | 1014.4 |
| 20260509042136 | 13 | 154 | 4.8 | 11.3 | 0.00 | 0.00 | 0.00 | 76 | 1014.4 |
| 20260509042034 | 13 | 169 | 4.8 | 11.3 | 0.00 | 0.00 | 0.00 | 76 | 1014.3 |
| 20260509041934 | 13 | 174 | 4.8 | 11.3 | 0.00 | 0.00 | 0.00 | 76 | 1014.3 |
| 20260509041834 | 13 | 156 | 4.8 | 11.3 | 0.00 | 0.00 | 0.00 | 76 | 1014.2 |
| 20260509041736 | 13 | 153 | 4.8 | 11.3 | 0.00 | 0.00 | 0.00 | 76 | 1014.3 |
| 20260509041636 | 13 | 166 | 4.8 | 12.9 | 0.00 | 0.00 | 0.00 | 76 | 1014.3 |
| 20260509041534 | 13 | 166 | 4.8 | 12.9 | 0.00 | 0.00 | 0.00 | 76 | 1014.3 |
| 20260509041436 | 13 | 167 | 4.8 | 12.9 | 0.00 | 0.00 | 0.00 | 76 | 1014.4 |
| 20260509041335 | 13 | 157 | 4.8 | 12.9 | 0.00 | 0.00 | 0.00 | 76 | 1014.4 |
| 20260509041234 | 13 | 151 | 4.8 | 12.9 | 0.00 | 0.00 | 0.00 | 76 | 1014.4 |
| 20260509041135 | 13 | 166 | 4.8 | 12.9 | 0.00 | 0.00 | 0.00 | 76 | 1014.3 |
| 20260509041034 | 13 | 172 | 4.8 | 12.9 | 0.00 | 0.00 | 0.00 | 76 | 1014.3 |
| 20260509040935 | 13 | 120 | 4.8 | 12.9 | 0.00 | 0.00 | 0.00 | 76 | 1014.3 |
| 20260509040836 | 13 | 172 | 4.8 | 12.9 | 0.00 | 0.00 | 0.00 | 76 | 1014.2 |
| 20260509040736 | 13 | 178 | 4.8 | 12.9 | 0.00 | 0.00 | 0.00 | 76 | 1014.3 |
| 20260509040635 | 13 | 166 | 4.8 | 11.3 | 0.00 | 0.00 | 0.00 | 76 | 1014.3 |
| 20260509040534 | 13 | 169 | 4.8 | 11.3 | 0.00 | 0.00 | 0.00 | 76 | 1014.3 |
| 20260509040436 | 13 | 171 | 4.8 | 11.3 | 0.00 | 0.00 | 0.00 | 76 | 1014.3 |
| 20260509040334 | 13 | 172 | 4.8 | 11.3 | 0.00 | 0.00 | 0.00 | 76 | 1014.3 |
| 20260509040235 | 13 | 146 | 4.8 | 11.3 | 0.00 | 0.00 | 0.00 | 76 | 1014.4 |
| 20260509040135 | 13 | 146 | 4.8 | 11.3 | 0.00 | 0.00 | 0.00 | 76 | 1014.3 |
| 20260509040036 | 13 | 162 | 4.8 | 11.3 | 0.00 | 0.00 | 0.00 | 76 | 1014.4 |
| 20260509035934 | 13 | 177 | 4.8 | 11.3 | 0.00 | 0.00 | 0.00 | 75 | 1014.4 |
| 20260509035833 | 13 | 177 | 4.8 | 11.3 | 0.00 | 0.00 | 0.00 | 75 | 1014.4 |
| 20260509035732 | 13 | 140 | 4.8 | 14.5 | 0.00 | 0.00 | 0.00 | 75 | 1014.5 |
| 20260509035629 | 13 | 167 | 4.8 | 14.5 | 0.00 | 0.00 | 0.00 | 75 | 1014.5 |
| 20260509035526 | 13 | 158 | 4.8 | 14.5 | 0.00 | 0.00 | 0.00 | 75 | 1014.5 |
| 20260509035427 | 13 | 162 | 4.8 | 14.5 | 0.00 | 0.00 | 0.00 | 75 | 1014.5 |
| 20260509035327 | 13 | 161 | 4.8 | 14.5 | 0.00 | 0.00 | 0.00 | 75 | 1014.5 |
| 20260509035226 | 13 | 165 | 4.8 | 14.5 | 0.00 | 0.00 | 0.00 | 76 | 1014.6 |
| 20260509035123 | 13 | 167 | 4.8 | 14.5 | 0.00 | 0.00 | 0.00 | 75 | 1014.5 |
| 20260509035015 | 13 | 136 | 4.8 | 14.5 | 0.00 | 0.00 | 0.00 | 75 | 1014.4 |
| 20260509034915 | 13 | 136 | 4.8 | 14.5 | 0.00 | 0.00 | 0.00 | 76 | 1014.4 |
| 20260509034815 | 13 | 136 | 4.8 | 14.5 | 0.00 | 0.00 | 0.00 | 75 | 1014.5 |
| 20260509034714 | 13 | 163 | 3.2 | 11.3 | 0.00 | 0.00 | 0.00 | 76 | 1014.4 |
| 20260509034613 | 13 | 150 | 4.8 | 11.3 | 0.00 | 0.00 | 0.00 | 75 | 1014.4 |
| 20260509034507 | 13 | 155 | 4.8 | 11.3 | 0.00 | 0.00 | 0.00 | 76 | 1014.4 |
| 20260509034407 | 13 | 154 | 4.8 | 11.3 | 0.00 | 0.00 | 0.00 | 75 | 1014.5 |
| 20260509034308 | 13 | 165 | 4.8 | 11.3 | 0.00 | 0.00 | 0.00 | 75 | 1014.5 |
| 20260509034206 | 13 | 165 | 4.8 | 11.3 | 0.00 | 0.00 | 0.00 | 75 | 1014.6 |
| 20260509034107 | 13 | 172 | 4.8 | 11.3 | 0.00 | 0.00 | 0.00 | 75 | 1014.5 |
| 20260509034002 | 13 | 177 | 4.8 | 11.3 | 0.00 | 0.00 | 0.00 | 75 | 1014.5 |
| 20260509033902 | 13 | 184 | 4.8 | 11.3 | 0.00 | 0.00 | 0.00 | 75 | 1014.4 |
| 20260509033801 | 13 | 176 | 4.8 | 11.3 | 0.00 | 0.00 | 0.00 | 75 | 1014.4 |
| 20260509033700 | 13 | 185 | 4.8 | 11.3 | 0.00 | 0.00 | 0.00 | 75 | 1014.4 |
| 20260509033603 | 13 | 149 | 4.8 | 11.3 | 0.00 | 0.00 | 0.00 | 75 | 1014.5 |
| 20260509033451 | 13 | 149 | 4.8 | 11.3 | 0.00 | 0.00 | 0.00 | 75 | 1014.4 |
| 20260509033350 | 13 | 194 | 4.8 | 11.3 | 0.00 | 0.00 | 0.00 | 75 | 1014.5 |
| 20260509033250 | 13 | 150 | 4.8 | 11.3 | 0.00 | 0.00 | 0.00 | 75 | 1014.5 |
| 20260509033151 | 13 | 163 | 4.8 | 11.3 | 0.00 | 0.00 | 0.00 | 75 | 1014.5 |
| 20260509033052 | 13 | 163 | 4.8 | 11.3 | 0.00 | 0.00 | 0.00 | 75 | 1014.6 |
| 20260509032947 | 13 | 163 | 4.8 | 11.3 | 0.00 | 0.00 | 0.00 | 75 | 1014.6 |
| 20260509032845 | 13 | 146 | 4.8 | 11.3 | 0.00 | 0.00 | 0.00 | 75 | 1014.5 |
| 20260509032744 | 13 | 146 | 4.8 | 11.3 | 0.00 | 0.00 | 0.00 | 75 | 1014.5 |
| 20260509032646 | 13 | 159 | 4.8 | 11.3 | 0.00 | 0.00 | 0.00 | 75 | 1014.5 |
| 20260509032545 | 13 | 126 | 4.8 | 11.3 | 0.00 | 0.00 | 0.00 | 75 | 1014.4 |
| 20260509032442 | 13 | 123 | 4.8 | 11.3 | 0.00 | 0.00 | 0.00 | 75 | 1014.5 |
| 20260509032339 | 13 | 123 | 4.8 | 11.3 | 0.00 | 0.00 | 0.00 | 75 | 1014.5 |
| 20260509032239 | 13 | 123 | 4.8 | 11.3 | 0.00 | 0.00 | 0.00 | 75 | 1014.5 |
| 20260509032138 | 13 | 166 | 4.8 | 11.3 | 0.00 | 0.00 | 0.00 | 75 | 1014.6 |
| 20260509032040 | 13 | 196 | 4.8 | 11.3 | 0.00 | 0.00 | 0.00 | 75 | 1014.6 |
| 20260509031932 | 13 | 173 | 4.8 | 11.3 | 0.00 | 0.00 | 0.00 | 75 | 1014.6 |
| 20260509031829 | 13 | 137 | 4.8 | 9.7 | 0.00 | 0.00 | 0.00 | 75 | 1014.6 |
| 20260509031729 | 13 | 158 | 4.8 | 9.7 | 0.00 | 0.00 | 0.00 | 75 | 1014.6 |
| 20260509031628 | 13 | 166 | 4.8 | 9.7 | 0.00 | 0.00 | 0.00 | 75 | 1014.5 |
| 20260509031530 | 13 | 140 | 4.8 | 9.7 | 0.00 | 0.00 | 0.00 | 75 | 1014.5 |
| 20260509031426 | 13 | 140 | 4.8 | 11.3 | 0.00 | 0.00 | 0.00 | 75 | 1014.6 |
| 20260509031326 | 13 | 146 | 4.8 | 11.3 | 0.00 | 0.00 | 0.00 | 75 | 1014.6 |
| 20260509031225 | 13 | 153 | 4.8 | 11.3 | 0.00 | 0.00 | 0.00 | 75 | 1014.6 |
| 20260509031124 | 13 | 150 | 4.8 | 11.3 | 0.00 | 0.00 | 0.00 | 75 | 1014.6 |
| 20260509031023 | 13 | 148 | 4.8 | 11.3 | 0.00 | 0.00 | 0.00 | 75 | 1014.6 |
| 20260509030918 | 13 | 128 | 4.8 | 11.3 | 0.00 | 0.00 | 0.00 | 75 | 1014.6 |
| 20260509030817 | 13 | 128 | 4.8 | 11.3 | 0.00 | 0.00 | 0.00 | 75 | 1014.6 |
| 20260509030718 | 13 | 147 | 3.2 | 11.3 | 0.00 | 0.00 | 0.00 | 75 | 1014.6 |
| 20260509030615 | 13 | 138 | 4.8 | 11.3 | 0.00 | 0.00 | 0.00 | 75 | 1014.7 |
| 20260509030515 | 13 | 139 | 3.2 | 11.3 | 0.00 | 0.00 | 0.00 | 75 | 1014.7 |
| 20260509030408 | 13 | 206 | 3.2 | 9.7 | 0.00 | 0.00 | 0.00 | 75 | 1014.6 |
| 20260509030308 | 13 | 163 | 4.8 | 9.7 | 0.00 | 0.00 | 0.00 | 75 | 1014.6 |
| 20260509030209 | 13 | 163 | 4.8 | 11.3 | 0.00 | 0.00 | 0.00 | 75 | 1014.6 |
| 20260509030108 | 13 | 164 | 4.8 | 11.3 | 0.00 | 0.00 | 0.00 | 75 | 1014.6 |
| 20260509030007 | 13 | 165 | 4.8 | 11.3 | 0.00 | 0.00 | 0.00 | 75 | 1014.6 |
| 20260509025900 | 13 | 165 | 4.8 | 11.3 | 0.00 | 0.00 | 0.00 | 75 | 1014.6 |
| 20260509025801 | 13 | 167 | 4.8 | 11.3 | 0.00 | 0.00 | 0.00 | 75 | 1014.6 |
| 20260509025701 | 13 | 167 | 4.8 | 11.3 | 0.00 | 0.00 | 0.00 | 75 | 1014.6 |
| 20260509025602 | 13 | 160 | 4.8 | 11.3 | 0.00 | 0.00 | 0.00 | 75 | 1014.7 |
| 20260509025500 | 13 | 160 | 4.8 | 11.3 | 0.00 | 0.00 | 0.00 | 75 | 1014.8 |
| 20260509025355 | 13 | 162 | 4.8 | 11.3 | 0.00 | 0.00 | 0.00 | 74 | 1014.6 |
| 20260509025252 | 13 | 157 | 4.8 | 11.3 | 0.00 | 0.00 | 0.00 | 75 | 1014.6 |
| 20260509025151 | 13 | 123 | 4.8 | 11.3 | 0.00 | 0.00 | 0.00 | 74 | 1014.6 |
| 20260509025051 | 13 | 175 | 4.8 | 11.3 | 0.00 | 0.00 | 0.00 | 74 | 1014.7 |
| 20260509024951 | 13 | 158 | 4.8 | 11.3 | 0.00 | 0.00 | 0.00 | 74 | 1014.7 |
| 20260509024847 | 13 | 148 | 4.8 | 11.3 | 0.00 | 0.00 | 0.00 | 74 | 1014.7 |
| 20260509024746 | 13 | 148 | 6.4 | 11.3 | 0.00 | 0.00 | 0.00 | 74 | 1014.8 |
| 20260509024644 | 13 | 120 | 4.8 | 11.3 | 0.00 | 0.00 | 0.00 | 74 | 1014.8 |
| 20260509024542 | 13 | 167 | 4.8 | 11.3 | 0.00 | 0.00 | 0.00 | 74 | 1014.8 |
| 20260509024441 | 13 | 142 | 6.4 | 11.3 | 0.00 | 0.00 | 0.00 | 74 | 1014.8 |
| 20260509024339 | 13 | 163 | 6.4 | 11.3 | 0.00 | 0.00 | 0.00 | 74 | 1014.8 |
| 20260509024240 | 13 | 142 | 6.4 | 11.3 | 0.00 | 0.00 | 0.00 | 74 | 1014.8 |
| 20260509024138 | 13 | 161 | 6.4 | 11.3 | 0.00 | 0.00 | 0.00 | 74 | 1014.8 |
| 20260509024037 | 13 | 167 | 4.8 | 11.3 | 0.00 | 0.00 | 0.00 | 74 | 1014.8 |
| 20260509023935 | 13 | 136 | 4.8 | 11.3 | 0.00 | 0.00 | 0.00 | 74 | 1014.9 |
| 20260509023831 | 13 | 136 | 4.8 | 11.3 | 0.00 | 0.00 | 0.00 | 74 | 1014.8 |
| 20260509023731 | 13 | 146 | 4.8 | 11.3 | 0.00 | 0.00 | 0.00 | 74 | 1014.7 |
| 20260509023630 | 13 | 150 | 6.4 | 11.3 | 0.00 | 0.00 | 0.00 | 74 | 1014.8 |
| 20260509023530 | 13 | 168 | 4.8 | 11.3 | 0.00 | 0.00 | 0.00 | 74 | 1014.7 |
| 20260509023431 | 13 | 175 | 4.8 | 11.3 | 0.00 | 0.00 | 0.00 | 74 | 1014.8 |
| 20260509023330 | 13 | 140 | 4.8 | 11.3 | 0.00 | 0.00 | 0.00 | 74 | 1014.8 |
| 20260509023229 | 13 | 154 | 4.8 | 11.3 | 0.00 | 0.00 | 0.00 | 74 | 1014.7 |
| 20260509023128 | 13 | 146 | 4.8 | 11.3 | 0.00 | 0.00 | 0.00 | 74 | 1014.8 |
| 20260509023027 | 13 | 170 | 4.8 | 11.3 | 0.00 | 0.00 | 0.00 | 73 | 1014.8 |
| 20260509022927 | 13 | 163 | 6.4 | 11.3 | 0.00 | 0.00 | 0.00 | 73 | 1014.7 |
| 20260509022826 | 13 | 144 | 6.4 | 11.3 | 0.00 | 0.00 | 0.00 | 73 | 1014.7 |
| 20260509022726 | 13 | 159 | 6.4 | 11.3 | 0.00 | 0.00 | 0.00 | 73 | 1014.8 |
| 20260509022628 | 13 | 157 | 4.8 | 11.3 | 0.00 | 0.00 | 0.00 | 73 | 1014.8 |
| 20260509022524 | 13 | 155 | 6.4 | 11.3 | 0.00 | 0.00 | 0.00 | 73 | 1014.8 |
| 20260509022424 | 13 | 166 | 6.4 | 11.3 | 0.00 | 0.00 | 0.00 | 73 | 1014.8 |
| 20260509022325 | 13 | 173 | 6.4 | 11.3 | 0.00 | 0.00 | 0.00 | 73 | 1014.8 |
| 20260509022226 | 13 | 163 | 6.4 | 11.3 | 0.00 | 0.00 | 0.00 | 73 | 1014.8 |
| 20260509022125 | 13 | 163 | 6.4 | 11.3 | 0.00 | 0.00 | 0.00 | 73 | 1014.7 |
| 20260509022025 | 13 | 168 | 6.4 | 11.3 | 0.00 | 0.00 | 0.00 | 73 | 1014.8 |
| 20260509021924 | 13 | 158 | 6.4 | 11.3 | 0.00 | 0.00 | 0.00 | 73 | 1014.7 |
| 20260509021824 | 13 | 160 | 6.4 | 11.3 | 0.00 | 0.00 | 0.00 | 73 | 1014.8 |
| 20260509021725 | 13 | 157 | 6.4 | 11.3 | 0.00 | 0.00 | 0.00 | 73 | 1014.8 |
| 20260509021624 | 13 | 148 | 6.4 | 11.3 | 0.00 | 0.00 | 0.00 | 73 | 1014.8 |
| 20260509021525 | 13 | 162 | 6.4 | 12.9 | 0.00 | 0.00 | 0.00 | 73 | 1014.8 |
| 20260509021420 | 13 | 173 | 6.4 | 12.9 | 0.00 | 0.00 | 0.00 | 73 | 1015.0 |
| 20260509021322 | 13 | 159 | 4.8 | 12.9 | 0.00 | 0.00 | 0.00 | 73 | 1014.9 |
| 20260509021220 | 13 | 153 | 6.4 | 12.9 | 0.00 | 0.00 | 0.00 | 73 | 1015.0 |
| 20260509021120 | 13 | 159 | 6.4 | 12.9 | 0.00 | 0.00 | 0.00 | 73 | 1014.8 |
| 20260509021021 | 13 | 160 | 6.4 | 12.9 | 0.00 | 0.00 | 0.00 | 73 | 1014.9 |
| 20260509020922 | 13 | 161 | 4.8 | 12.9 | 0.00 | 0.00 | 0.00 | 73 | 1014.8 |
| 20260509020821 | 13 | 159 | 4.8 | 12.9 | 0.00 | 0.00 | 0.00 | 72 | 1014.8 |
| 20260509020721 | 13 | 159 | 4.8 | 12.9 | 0.00 | 0.00 | 0.00 | 73 | 1014.7 |
| 20260509020620 | 13 | 163 | 4.8 | 12.9 | 0.00 | 0.00 | 0.00 | 72 | 1014.7 |
| 20260509020521 | 13 | 165 | 4.8 | 11.3 | 0.00 | 0.00 | 0.00 | 72 | 1014.7 |
| 20260509020420 | 13 | 167 | 4.8 | 11.3 | 0.00 | 0.00 | 0.00 | 72 | 1014.7 |
| 20260509020321 | 13 | 144 | 4.8 | 9.7 | 0.00 | 0.00 | 0.00 | 72 | 1014.7 |
| 20260509020220 | 13 | 173 | 4.8 | 9.7 | 0.00 | 0.00 | 0.00 | 72 | 1014.7 |
| 20260509020120 | 13 | 171 | 4.8 | 9.7 | 0.00 | 0.00 | 0.00 | 72 | 1014.8 |
| 20260509020021 | 13 | 158 | 4.8 | 11.3 | 0.00 | 0.00 | 0.00 | 72 | 1014.7 |
| 20260509015921 | 13 | 157 | 4.8 | 11.3 | 0.00 | 0.00 | 0.00 | 72 | 1014.6 |
| 20260509015820 | 13 | 157 | 6.4 | 11.3 | 0.00 | 0.00 | 0.00 | 72 | 1014.7 |
| 20260509015722 | 13 | 160 | 6.4 | 11.3 | 0.00 | 0.00 | 0.00 | 72 | 1014.7 |
| 20260509015620 | 13 | 161 | 6.4 | 11.3 | 0.00 | 0.00 | 0.00 | 72 | 1014.8 |
| 20260509015522 | 13 | 158 | 6.4 | 11.3 | 0.00 | 0.00 | 0.00 | 72 | 1014.7 |
| 20260509015420 | 13 | 163 | 6.4 | 11.3 | 0.00 | 0.00 | 0.00 | 72 | 1014.8 |
| 20260509015322 | 13 | 167 | 6.4 | 11.3 | 0.00 | 0.00 | 0.00 | 72 | 1014.8 |
| 20260509015221 | 13 | 167 | 6.4 | 11.3 | 0.00 | 0.00 | 0.00 | 71 | 1014.8 |
| 20260509015120 | 13 | 163 | 6.4 | 11.3 | 0.00 | 0.00 | 0.00 | 71 | 1014.7 |
| 20260509015022 | 13 | 162 | 6.4 | 11.3 | 0.00 | 0.00 | 0.00 | 71 | 1014.6 |
| 20260509014922 | 13 | 162 | 6.4 | 11.3 | 0.00 | 0.00 | 0.00 | 71 | 1014.7 |
| 20260509014714 | 13 | 163 | 4.8 | 11.3 | 0.00 | 0.00 | 0.00 | 71 | 1014.7 |
| 20260509014612 | 13 | 163 | 4.8 | 11.3 | 0.00 | 0.00 | 0.00 | 71 | 1014.7 |
| 20260509014514 | 13 | 162 | 4.8 | 11.3 | 0.00 | 0.00 | 0.00 | 71 | 1014.7 |
| 20260509014414 | 13 | 163 | 4.8 | 11.3 | 0.00 | 0.00 | 0.00 | 71 | 1014.8 |
| 20260509014314 | 13 | 167 | 4.8 | 11.3 | 0.00 | 0.00 | 0.00 | 71 | 1014.8 |
| 20260509014213 | 13 | 167 | 4.8 | 11.3 | 0.00 | 0.00 | 0.00 | 71 | 1014.8 |
| 20260509014112 | 13 | 167 | 4.8 | 11.3 | 0.00 | 0.00 | 0.00 | 70 | 1014.8 |
| 20260509014013 | 13 | 143 | 4.8 | 11.3 | 0.00 | 0.00 | 0.00 | 70 | 1014.8 |
| 20260509013913 | 13 | 139 | 4.8 | 11.3 | 0.00 | 0.00 | 0.00 | 70 | 1014.8 |
| 20260509013813 | 13 | 153 | 4.8 | 11.3 | 0.00 | 0.00 | 0.00 | 70 | 1014.8 |
| 20260509013713 | 13 | 155 | 4.8 | 11.3 | 0.00 | 0.00 | 0.00 | 70 | 1014.8 |
| 20260509013612 | 13 | 154 | 4.8 | 11.3 | 0.00 | 0.00 | 0.00 | 70 | 1014.7 |
| 20260509013514 | 13 | 159 | 4.8 | 14.5 | 0.00 | 0.00 | 0.00 | 70 | 1014.7 |
| 20260509013413 | 13 | 158 | 4.8 | 14.5 | 0.00 | 0.00 | 0.00 | 70 | 1014.6 |
| 20260509013313 | 13 | 158 | 4.8 | 14.5 | 0.00 | 0.00 | 0.00 | 70 | 1014.7 |
| 20260509013214 | 13 | 155 | 4.8 | 14.5 | 0.00 | 0.00 | 0.00 | 70 | 1014.7 |
| 20260509013113 | 13 | 153 | 4.8 | 14.5 | 0.00 | 0.00 | 0.00 | 70 | 1014.6 |
| 20260509013012 | 13 | 167 | 4.8 | 14.5 | 0.00 | 0.00 | 0.00 | 70 | 1014.6 |
| 20260509012912 | 13 | 167 | 4.8 | 14.5 | 0.00 | 0.00 | 0.00 | 70 | 1014.6 |
| 20260509012814 | 13 | 167 | 4.8 | 14.5 | 0.00 | 0.00 | 0.00 | 70 | 1014.6 |
| 20260509012712 | 13 | 168 | 4.8 | 14.5 | 0.00 | 0.00 | 0.00 | 70 | 1014.5 |
| 20260509012614 | 13 | 157 | 6.4 | 14.5 | 0.00 | 0.00 | 0.00 | 70 | 1014.5 |
| 20260509012512 | 13 | 157 | 6.4 | 12.9 | 0.00 | 0.00 | 0.00 | 70 | 1014.5 |
| 20260509012413 | 13 | 184 | 4.8 | 12.9 | 0.00 | 0.00 | 0.00 | 70 | 1014.5 |
| 20260509012314 | 13 | 140 | 4.8 | 12.9 | 0.00 | 0.00 | 0.00 | 70 | 1014.5 |
| 20260509012213 | 13 | 155 | 4.8 | 12.9 | 0.00 | 0.00 | 0.00 | 70 | 1014.5 |
| 20260509012113 | 13 | 147 | 6.4 | 12.9 | 0.00 | 0.00 | 0.00 | 69 | 1014.4 |
| 20260509012012 | 13 | 144 | 6.4 | 12.9 | 0.00 | 0.00 | 0.00 | 70 | 1014.5 |
| 20260509011913 | 13 | 176 | 6.4 | 12.9 | 0.00 | 0.00 | 0.00 | 70 | 1014.4 |
| 20260509011812 | 13 | 168 | 6.4 | 11.3 | 0.00 | 0.00 | 0.00 | 69 | 1014.4 |
| 20260509011713 | 13 | 161 | 4.8 | 11.3 | 0.00 | 0.00 | 0.00 | 69 | 1014.4 |
| 20260509011613 | 13 | 158 | 6.4 | 11.3 | 0.00 | 0.00 | 0.00 | 69 | 1014.5 |
| 20260509011509 | 13 | 168 | 6.4 | 11.3 | 0.00 | 0.00 | 0.00 | 69 | 1014.5 |
| 20260509011410 | 13 | 167 | 6.4 | 11.3 | 0.00 | 0.00 | 0.00 | 69 | 1014.4 |
| 20260509011308 | 13 | 167 | 6.4 | 11.3 | 0.00 | 0.00 | 0.00 | 69 | 1014.5 |
| 20260509011209 | 13 | 136 | 6.4 | 12.9 | 0.00 | 0.00 | 0.00 | 69 | 1014.5 |
| 20260509011109 | 13 | 171 | 6.4 | 12.9 | 0.00 | 0.00 | 0.00 | 69 | 1014.5 |
| 20260509011010 | 13 | 152 | 6.4 | 12.9 | 0.00 | 0.00 | 0.00 | 69 | 1014.5 |
| 20260509010908 | 13 | 150 | 6.4 | 12.9 | 0.00 | 0.00 | 0.00 | 69 | 1014.5 |
| 20260509010855 | 13 | 167 | 6.4 | 12.9 | 0.00 | 0.00 | 0.00 | 69 | 1014.5 |
| 20260509010850 | 13 | 169 | 6.4 | 12.9 | 0.00 | 0.00 | 0.00 | 68 | 1014.4 |
| 20260509010609 | 13 | 150 | 6.4 | 12.9 | 0.00 | 0.00 | 0.00 | 68 | 1014.5 |
| 20260509010509 | 13 | 163 | 6.4 | 12.9 | 0.00 | 0.00 | 0.00 | 68 | 1014.5 |
| 20260509010409 | 13 | 142 | 6.4 | 12.9 | 0.00 | 0.00 | 0.00 | 68 | 1014.6 |
| 20260509010309 | 13 | 174 | 4.8 | 12.9 | 0.00 | 0.00 | 0.00 | 68 | 1014.6 |
| 20260509010208 | 13 | 157 | 4.8 | 12.9 | 0.00 | 0.00 | 0.00 | 68 | 1014.5 |
| 20260509010110 | 13 | 148 | 4.8 | 9.7 | 0.00 | 0.00 | 0.00 | 68 | 1014.6 |
| 20260509010010 | 13 | 148 | 4.8 | 9.7 | 0.00 | 0.00 | 0.00 | 68 | 1014.6 |
| 20260509005908 | 13 | 157 | 4.8 | 9.7 | 0.00 | 0.00 | 0.00 | 68 | 1014.6 |
| 20260509005810 | 13 | 161 | 4.8 | 9.7 | 0.00 | 0.00 | 0.00 | 68 | 1014.6 |
| 20260509005708 | 13 | 137 | 4.8 | 6.4 | 0.00 | 0.00 | 0.00 | 68 | 1014.6 |
| 20260509005609 | 13 | 136 | 4.8 | 8.0 | 0.00 | 0.00 | 0.00 | 68 | 1014.6 |
| 20260509005510 | 13 | 145 | 4.8 | 8.0 | 0.00 | 0.00 | 0.00 | 68 | 1014.5 |
| 20260509005408 | 13 | 144 | 4.8 | 9.7 | 0.00 | 0.00 | 0.00 | 68 | 1014.5 |
| 20260509005310 | 13 | 144 | 4.8 | 11.3 | 0.00 | 0.00 | 0.00 | 68 | 1014.5 |
| 20260509005209 | 13 | 143 | 4.8 | 11.3 | 0.00 | 0.00 | 0.00 | 67 | 1014.5 |
| 20260509005109 | 13 | 143 | 4.8 | 11.3 | 0.00 | 0.00 | 0.00 | 68 | 1014.5 |
| 20260509005009 | 13 | 143 | 4.8 | 11.3 | 0.00 | 0.00 | 0.00 | 67 | 1014.5 |
| 20260509004909 | 13 | 155 | 4.8 | 11.3 | 0.00 | 0.00 | 0.00 | 67 | 1014.5 |
| 20260509004808 | 13 | 155 | 4.8 | 11.3 | 0.00 | 0.00 | 0.00 | 67 | 1014.5 |
| 20260509004708 | 13 | 168 | 4.8 | 11.3 | 0.00 | 0.00 | 0.00 | 67 | 1014.5 |
| 20260509004609 | 13 | 166 | 4.8 | 11.3 | 0.00 | 0.00 | 0.00 | 67 | 1014.4 |
| 20260509004508 | 13 | 166 | 4.8 | 11.3 | 0.00 | 0.00 | 0.00 | 67 | 1014.5 |
| 20260509004409 | 14 | 163 | 4.8 | 11.3 | 0.00 | 0.00 | 0.00 | 67 | 1014.5 |
| 20260509004310 | 14 | 190 | 4.8 | 9.7 | 0.00 | 0.00 | 0.00 | 67 | 1014.5 |
| 20260509004205 | 14 | 161 | 4.8 | 9.7 | 0.00 | 0.00 | 0.00 | 67 | 1014.4 |
| 20260509004104 | 14 | 161 | 4.8 | 9.7 | 0.00 | 0.00 | 0.00 | 67 | 1014.4 |
| 20260509004004 | 14 | 161 | 4.8 | 9.7 | 0.00 | 0.00 | 0.00 | 67 | 1014.4 |
| 20260509003906 | 14 | 161 | 4.8 | 9.7 | 0.00 | 0.00 | 0.00 | 66 | 1014.3 |
| 20260509003804 | 14 | 180 | 4.8 | 9.7 | 0.00 | 0.00 | 0.00 | 66 | 1014.4 |
| 20260509003704 | 14 | 175 | 4.8 | 9.7 | 0.00 | 0.00 | 0.00 | 66 | 1014.4 |
| 20260509003605 | 14 | 176 | 4.8 | 9.7 | 0.00 | 0.00 | 0.00 | 66 | 1014.3 |
| 20260509003505 | 14 | 177 | 4.8 | 9.7 | 0.00 | 0.00 | 0.00 | 66 | 1014.4 |
| 20260509003404 | 14 | 154 | 4.8 | 9.7 | 0.00 | 0.00 | 0.00 | 67 | 1014.3 |
| 20260509003306 | 14 | 153 | 4.8 | 9.7 | 0.00 | 0.00 | 0.00 | 67 | 1014.3 |
| 20260509003204 | 14 | 152 | 4.8 | 9.7 | 0.00 | 0.00 | 0.00 | 66 | 1014.3 |
| 20260509003104 | 14 | 214 | 4.8 | 9.7 | 0.00 | 0.00 | 0.00 | 66 | 1014.4 |
| 20260509003006 | 14 | 173 | 4.8 | 9.7 | 0.00 | 0.00 | 0.00 | 66 | 1014.3 |
| 20260509002905 | 14 | 167 | 4.8 | 9.7 | 0.00 | 0.00 | 0.00 | 66 | 1014.3 |
| 20260509002804 | 14 | 155 | 4.8 | 9.7 | 0.00 | 0.00 | 0.00 | 66 | 1014.3 |
| 20260509002705 | 14 | 140 | 4.8 | 9.7 | 0.00 | 0.00 | 0.00 | 66 | 1014.3 |
| 20260509002606 | 14 | 164 | 4.8 | 9.7 | 0.00 | 0.00 | 0.00 | 65 | 1014.3 |
| 20260509002505 | 14 | 163 | 4.8 | 9.7 | 0.00 | 0.00 | 0.00 | 65 | 1014.3 |
| 20260509002404 | 14 | 183 | 4.8 | 9.7 | 0.00 | 0.00 | 0.00 | 65 | 1014.3 |
| 20260509002306 | 14 | 192 | 4.8 | 9.7 | 0.00 | 0.00 | 0.00 | 65 | 1014.3 |
| 20260509002204 | 14 | 169 | 4.8 | 9.7 | 0.00 | 0.00 | 0.00 | 65 | 1014.3 |
| 20260509002104 | 14 | 169 | 4.8 | 9.7 | 0.00 | 0.00 | 0.00 | 65 | 1014.2 |
| 20260509002005 | 14 | 168 | 4.8 | 9.7 | 0.00 | 0.00 | 0.00 | 65 | 1014.2 |
| 20260509001904 | 14 | 167 | 4.8 | 9.7 | 0.00 | 0.00 | 0.00 | 65 | 1014.3 |
| 20260509001804 | 14 | 177 | 3.2 | 8.0 | 0.00 | 0.00 | 0.00 | 65 | 1014.2 |
| 20260509001706 | 14 | 177 | 3.2 | 8.0 | 0.00 | 0.00 | 0.00 | 65 | 1014.1 |
| 20260509001605 | 14 | 180 | 3.2 | 8.0 | 0.00 | 0.00 | 0.00 | 65 | 1014.1 |
| 20260509001505 | 15 | 179 | 4.8 | 9.7 | 0.00 | 0.00 | 0.00 | 64 | 1014.1 |
| 20260509001405 | 15 | 163 | 4.8 | 9.7 | 0.00 | 0.00 | 0.00 | 65 | 1014.1 |
| 20260509001305 | 15 | 168 | 4.8 | 9.7 | 0.00 | 0.00 | 0.00 | 64 | 1014.2 |
| 20260509001205 | 15 | 191 | 4.8 | 9.7 | 0.00 | 0.00 | 0.00 | 64 | 1014.2 |
| 20260509001104 | 15 | 157 | 4.8 | 9.7 | 0.00 | 0.00 | 0.00 | 64 | 1014.2 |
| 20260509001006 | 15 | 157 | 4.8 | 9.7 | 0.00 | 0.00 | 0.00 | 64 | 1014.3 |
| 20260509000901 | 15 | 186 | 4.8 | 9.7 | 0.00 | 0.00 | 0.00 | 64 | 1014.3 |
| 20260509000800 | 15 | 189 | 4.8 | 9.7 | 0.00 | 0.00 | 0.00 | 64 | 1014.2 |
| 20260509000659 | 15 | 146 | 4.8 | 9.7 | 0.00 | 0.00 | 0.00 | 64 | 1014.2 |
| 20260509000558 | 15 | 144 | 4.8 | 9.7 | 0.00 | 0.00 | 0.00 | 64 | 1014.3 |
| 20260509000457 | 15 | 176 | 4.8 | 9.7 | 0.00 | 0.00 | 0.00 | 64 | 1014.2 |
| 20260509000355 | 15 | 179 | 4.8 | 9.7 | 0.00 | 0.00 | 0.00 | 63 | 1014.2 |
| 20260509000256 | 15 | 179 | 4.8 | 9.7 | 0.00 | 0.00 | 0.00 | 63 | 1014.1 |
| 20260509000152 | 15 | 186 | 4.8 | 9.7 | 0.00 | 0.00 | 0.00 | 64 | 1014.1 |
| 20260509000051 | 15 | 186 | 4.8 | 9.7 | 0.00 | 0.00 | 0.00 | 63 | 1014.1 |
| 20260508235951 | 15 | 167 | 4.8 | 9.7 | 0.00 | 0.00 | 0.00 | 64 | 1014.0 |
| 20260508235839 | 15 | 167 | 4.8 | 9.7 | 0.00 | 0.00 | 0.00 | 63 | 1014.1 |
| 20260508235739 | 15 | 182 | 4.8 | 9.7 | 0.00 | 0.00 | 0.00 | 63 | 1014.1 |
| 20260508235638 | 15 | 182 | 4.8 | 14.5 | 0.00 | 0.00 | 0.00 | 63 | 1014.1 |
| 20260508235539 | 15 | 184 | 4.8 | 14.5 | 0.00 | 0.00 | 0.00 | 63 | 1014.1 |
| 20260508235438 | 15 | 183 | 4.8 | 14.5 | 0.00 | 0.00 | 0.00 | 63 | 1014.1 |
| 20260508235332 | 15 | 173 | 4.8 | 14.5 | 0.00 | 0.00 | 0.00 | 63 | 1014.2 |
| 20260508235233 | 15 | 155 | 4.8 | 14.5 | 0.00 | 0.00 | 0.00 | 63 | 1014.2 |
| 20260508235132 | 15 | 151 | 4.8 | 14.5 | 0.00 | 0.00 | 0.00 | 63 | 1014.2 |
| 20260508235031 | 15 | 142 | 4.8 | 14.5 | 0.00 | 0.00 | 0.00 | 63 | 1014.2 |
| 20260508234933 | 15 | 157 | 4.8 | 14.5 | 0.00 | 0.00 | 0.00 | 63 | 1014.1 |
| 20260508234828 | 15 | 157 | 4.8 | 14.5 | 0.00 | 0.00 | 0.00 | 63 | 1014.2 |
| 20260508234728 | 15 | 157 | 4.8 | 14.5 | 0.00 | 0.00 | 0.00 | 62 | 1014.0 |
| 20260508234629 | 15 | 148 | 3.2 | 9.7 | 0.00 | 0.00 | 0.00 | 63 | 1014.1 |
| 20260508234529 | 15 | 148 | 3.2 | 9.7 | 0.00 | 0.00 | 0.00 | 62 | 1014.0 |
| 20260508234426 | 15 | 159 | 3.2 | 9.7 | 0.00 | 0.00 | 0.00 | 61 | 1014.1 |
| 20260508234315 | 15 | 174 | 3.2 | 9.7 | 0.00 | 0.00 | 0.00 | 62 | 1014.1 |
| 20260508234215 | 15 | 152 | 3.2 | 9.7 | 0.00 | 0.00 | 0.00 | 62 | 1014.1 |
| 20260508234115 | 15 | 153 | 3.2 | 9.7 | 0.00 | 0.00 | 0.00 | 62 | 1014.1 |
| 20260508234014 | 15 | 150 | 3.2 | 9.7 | 0.00 | 0.00 | 0.00 | 62 | 1014.0 |
| 20260508233914 | 15 | 148 | 3.2 | 9.7 | 0.00 | 0.00 | 0.00 | 61 | 1014.1 |
| 20260508233812 | 15 | 147 | 3.2 | 9.7 | 0.00 | 0.00 | 0.00 | 61 | 1014.0 |
| 20260508233713 | 15 | 153 | 3.2 | 9.7 | 0.00 | 0.00 | 0.00 | 61 | 1014.0 |
| 20260508233610 | 15 | 157 | 3.2 | 9.7 | 0.00 | 0.00 | 0.00 | 61 | 1014.0 |
| 20260508233511 | 15 | 153 | 3.2 | 9.7 | 0.00 | 0.00 | 0.00 | 61 | 1014.0 |
| 20260508233408 | 15 | 167 | 3.2 | 9.7 | 0.00 | 0.00 | 0.00 | 60 | 1014.0 |
| 20260508233304 | 15 | 167 | 3.2 | 9.7 | 0.00 | 0.00 | 0.00 | 60 | 1014.1 |
| 20260508233205 | 16 | 143 | 3.2 | 9.7 | 0.00 | 0.00 | 0.00 | 61 | 1014.1 |
| 20260508233104 | 16 | 145 | 3.2 | 9.7 | 0.00 | 0.00 | 0.00 | 61 | 1014.1 |
| 20260508233006 | 16 | 145 | 3.2 | 9.7 | 0.00 | 0.00 | 0.00 | 60 | 1014.2 |
| 20260508232903 | 16 | 145 | 3.2 | 9.7 | 0.00 | 0.00 | 0.00 | 60 | 1014.2 |
| 20260508232755 | 16 | 145 | 3.2 | 9.7 | 0.00 | 0.00 | 0.00 | 59 | 1014.2 |
| 20260508232655 | 16 | 145 | 3.2 | 9.7 | 0.00 | 0.00 | 0.00 | 59 | 1014.1 |
| 20260508232553 | 16 | 145 | 3.2 | 9.7 | 0.00 | 0.00 | 0.00 | 59 | 1014.1 |
| 20260508232454 | 16 | 156 | 3.2 | 9.7 | 0.00 | 0.00 | 0.00 | 59 | 1014.1 |
| 20260508232351 | 16 | 159 | 3.2 | 8.0 | 0.00 | 0.00 | 0.00 | 59 | 1014.2 |
| 20260508232252 | 16 | 158 | 3.2 | 8.0 | 0.00 | 0.00 | 0.00 | 59 | 1014.3 |
| 20260508232149 | 16 | 158 | 4.8 | 9.7 | 0.00 | 0.00 | 0.00 | 59 | 1014.1 |
| 20260508232046 | 16 | 158 | 4.8 | 14.5 | 0.00 | 0.00 | 0.00 | 59 | 1014.2 |
| 20260508231948 | 16 | 161 | 4.8 | 14.5 | 0.00 | 0.00 | 0.00 | 59 | 1014.1 |
| 20260508231844 | 16 | 161 | 4.8 | 14.5 | 0.00 | 0.00 | 0.00 | 58 | 1014.2 |
| 20260508231743 | 16 | 164 | 6.4 | 14.5 | 0.00 | 0.00 | 0.00 | 58 | 1014.1 |
| 20260508231643 | 16 | 163 | 4.8 | 14.5 | 0.00 | 0.00 | 0.00 | 58 | 1014.2 |
| 20260508231541 | 16 | 160 | 4.8 | 14.5 | 0.00 | 0.00 | 0.00 | 58 | 1014.1 |
| 20260508231440 | 16 | 163 | 4.8 | 14.5 | 0.00 | 0.00 | 0.00 | 57 | 1014.2 |
| 20260508231339 | 16 | 162 | 4.8 | 14.5 | 0.00 | 0.00 | 0.00 | 58 | 1014.3 |
| 20260508231230 | 16 | 161 | 4.8 | 14.5 | 0.00 | 0.00 | 0.00 | 57 | 1014.2 |
| 20260508231129 | 16 | 156 | 4.8 | 14.5 | 0.00 | 0.00 | 0.00 | 57 | 1014.3 |
| 20260508231030 | 16 | 191 | 4.8 | 12.9 | 0.00 | 0.00 | 0.00 | 57 | 1014.3 |
| 20260508230931 | 16 | 185 | 4.8 | 12.9 | 0.00 | 0.00 | 0.00 | 57 | 1014.3 |
| 20260508230828 | 16 | 155 | 4.8 | 12.9 | 0.00 | 0.00 | 0.00 | 58 | 1014.4 |
| 20260508230722 | 16 | 183 | 3.2 | 11.3 | 0.00 | 0.00 | 0.00 | 58 | 1014.4 |
| 20260508230622 | 16 | 163 | 4.8 | 11.3 | 0.00 | 0.00 | 0.00 | 58 | 1014.3 |
| 20260508230522 | 16 | 163 | 4.8 | 16.1 | 0.00 | 0.00 | 0.00 | 57 | 1014.2 |
| 20260508230423 | 16 | 165 | 4.8 | 16.1 | 0.00 | 0.00 | 0.00 | 57 | 1014.2 |
| 20260508230323 | 16 | 155 | 4.8 | 16.1 | 0.00 | 0.00 | 0.00 | 58 | 1014.2 |
| 20260508230219 | 16 | 159 | 6.4 | 16.1 | 0.00 | 0.00 | 0.00 | 57 | 1014.2 |
| 20260508230116 | 16 | 158 | 6.4 | 16.1 | 0.00 | 0.00 | 0.00 | 57 | 1014.4 |
| 20260508230017 | 16 | 151 | 6.4 | 16.1 | 0.00 | 0.00 | 0.00 | 56 | 1014.3 |
| 20260508225916 | 16 | 154 | 6.4 | 16.1 | 0.00 | 0.00 | 0.00 | 58 | 1014.3 |
| 20260508225816 | 16 | 156 | 6.4 | 16.1 | 0.00 | 0.00 | 0.00 | 56 | 1014.4 |
| 20260508225706 | 16 | 184 | 6.4 | 16.1 | 0.00 | 0.00 | 0.00 | 55 | 1014.4 |
| 20260508225605 | 16 | 199 | 6.4 | 16.1 | 0.00 | 0.00 | 0.00 | 55 | 1014.3 |
| 20260508225506 | 16 | 163 | 6.4 | 16.1 | 0.00 | 0.00 | 0.00 | 56 | 1014.3 |
| 20260508225404 | 16 | 186 | 4.8 | 16.1 | 0.00 | 0.00 | 0.00 | 56 | 1014.3 |
| 20260508225306 | 16 | 136 | 4.8 | 16.1 | 0.00 | 0.00 | 0.00 | 56 | 1014.2 |
| 20260508225201 | 16 | 163 | 6.4 | 16.1 | 0.00 | 0.00 | 0.00 | 55 | 1014.2 |
| 20260508225100 | 16 | 182 | 6.4 | 16.1 | 0.00 | 0.00 | 0.00 | 55 | 1014.2 |
| 20260508224958 | 17 | 180 | 6.4 | 16.1 | 0.00 | 0.00 | 0.00 | 54 | 1014.1 |
| 20260508224859 | 17 | 171 | 6.4 | 16.1 | 0.00 | 0.00 | 0.00 | 55 | 1014.1 |
| 20260508224758 | 17 | 156 | 6.4 | 16.1 | 0.00 | 0.00 | 0.00 | 56 | 1014.1 |
| 20260508224653 | 17 | 157 | 6.4 | 16.1 | 0.00 | 0.00 | 0.00 | 53 | 1014.1 |
| 20260508224554 | 17 | 211 | 6.4 | 14.5 | 0.00 | 0.00 | 0.00 | 54 | 1014.2 |
| 20260508224453 | 17 | 196 | 6.4 | 14.5 | 0.00 | 0.00 | 0.00 | 54 | 1014.1 |
| 20260508224353 | 17 | 209 | 4.8 | 14.5 | 0.00 | 0.00 | 0.00 | 54 | 1014.2 |
| 20260508224253 | 17 | 149 | 4.8 | 14.5 | 0.00 | 0.00 | 0.00 | 54 | 1014.1 |
| 20260508224142 | 17 | 166 | 3.2 | 14.5 | 0.00 | 0.00 | 0.00 | 53 | 1014.2 |
| 20260508224042 | 17 | 158 | 3.2 | 14.5 | 0.00 | 0.00 | 0.00 | 54 | 1014.2 |
| 20260508223943 | 17 | 101 | 1.6 | 11.3 | 0.00 | 0.00 | 0.00 | 54 | 1014.2 |
| 20260508223843 | 17 | 130 | 1.6 | 11.3 | 0.00 | 0.00 | 0.00 | 54 | 1014.2 |
| 20260508223742 | 17 | 123 | 1.6 | 11.3 | 0.00 | 0.00 | 0.00 | 54 | 1014.2 |
| 20260508223641 | 17 | 165 | 1.6 | 11.3 | 0.00 | 0.00 | 0.00 | 53 | 1014.2 |
| 20260508223540 | 17 | 173 | 1.6 | 11.3 | 0.00 | 0.00 | 0.00 | 53 | 1014.1 |
| 20260508223438 | 17 | 173 | 0.0 | 11.3 | 0.00 | 0.00 | 0.00 | 52 | 1014.1 |
| 20260508223338 | 17 | 122 | 0.0 | 8.0 | 0.00 | 0.00 | 0.00 | 53 | 1014.1 |
| 20260508223237 | 17 | 163 | 1.6 | 9.7 | 0.00 | 0.00 | 0.00 | 53 | 1014.1 |
| 20260508223134 | 17 | 168 | 1.6 | 9.7 | 0.00 | 0.00 | 0.00 | 52 | 1014.1 |
| 20260508223033 | 17 | 132 | 1.6 | 9.7 | 0.00 | 0.00 | 0.00 | 53 | 1014.1 |
| 20260508222932 | 17 | 178 | 1.6 | 9.7 | 0.00 | 0.00 | 0.00 | 52 | 1014.1 |
| 20260508222833 | 17 | 161 | 1.6 | 9.7 | 0.00 | 0.00 | 0.00 | 52 | 1014.2 |
| 20260508222731 | 17 | 138 | 1.6 | 9.7 | 0.00 | 0.00 | 0.00 | 52 | 1014.1 |
| 20260508222624 | 17 | 133 | 1.6 | 9.7 | 0.00 | 0.00 | 0.00 | 52 | 1014.3 |
| 20260508222521 | 17 | 133 | 1.6 | 9.7 | 0.00 | 0.00 | 0.00 | 51 | 1014.1 |
| 20260508222422 | 17 | 146 | 1.6 | 9.7 | 0.00 | 0.00 | 0.00 | 52 | 1014.1 |
| 20260508222320 | 17 | 202 | 1.6 | 9.7 | 0.00 | 0.00 | 0.00 | 51 | 1014.1 |
| 20260508222220 | 17 | 143 | 1.6 | 8.0 | 0.00 | 0.00 | 0.00 | 51 | 1014.1 |
| 20260508222117 | 17 | 147 | 0.0 | 8.0 | 0.00 | 0.00 | 0.00 | 50 | 1014.1 |
| 20260508222015 | 17 | 137 | 0.0 | 4.8 | 0.00 | 0.00 | 0.00 | 50 | 1014.1 |
| 20260508221915 | 17 | 140 | 0.0 | 3.2 | 0.00 | 0.00 | 0.00 | 49 | 1014.0 |
| 20260508221815 | 17 | 184 | 0.0 | 0.0 | 0.00 | 0.00 | 0.00 | 50 | 1014.0 |
| 20260508221714 | 17 | 149 | 0.0 | 0.0 | 0.00 | 0.00 | 0.00 | 50 | 1014.0 |
| 20260508221612 | 17 | 151 | 0.0 | 0.0 | 0.00 | 0.00 | 0.00 | 50 | 1014.0 |
| 20260508221513 | 17 | 164 | 0.0 | 0.0 | 0.00 | 0.00 | 0.00 | 49 | 1014.1 |
| 20260508221412 | 17 | 161 | 0.0 | 0.0 | 0.00 | 0.00 | 0.00 | 50 | 1014.1 |
| 20260508221311 | 17 | 153 | 0.0 | 0.0 | 0.00 | 0.00 | 0.00 | 49 | 1014.1 |
| 20260508221209 | 17 | 147 | 0.0 | 0.0 | 0.00 | 0.00 | 0.00 | 50 | 1014.1 |
| 20260508221100 | 17 | 144 | 0.0 | 0.0 | 0.00 | 0.00 | 0.00 | 49 | 1014.1 |
| 20260508220958 | 17 | 157 | 0.0 | 0.0 | 0.00 | 0.00 | 0.00 | 49 | 1014.1 |
| 20260508220859 | 17 | 163 | 0.0 | 0.0 | 0.00 | 0.00 | 0.00 | 49 | 1014.2 |
| 20260508220759 | 17 | 163 | 0.0 | 0.0 | 0.00 | 0.00 | 0.00 | 49 | 1014.1 |
| 20260508220659 | 17 | 163 | 0.0 | 0.0 | 0.00 | 0.00 | 0.00 | 49 | 1014.1 |
| 20260508220553 | 17 | 246 | 0.0 | 0.0 | 0.00 | 0.00 | 0.00 | 49 | 1014.1 |
| 20260508220452 | 17 | 150 | 0.0 | 0.0 | 0.00 | 0.00 | 0.00 | 49 | 1013.9 |
| 20260508220353 | 17 | 144 | 0.0 | 0.0 | 0.00 | 0.00 | 0.00 | 48 | 1013.9 |
| 20260508220252 | 17 | 144 | 0.0 | 0.0 | 0.00 | 0.00 | 0.00 | 48 | 1014.0 |
| 20260508220152 | 17 | 148 | 0.0 | 0.0 | 0.00 | 0.00 | 0.00 | 48 | 1013.9 |
| 20260508220047 | 17 | 131 | 0.0 | 0.0 | 0.00 | 0.00 | 0.00 | 48 | 1013.8 |
| 20260508215947 | 17 | 149 | 0.0 | 0.0 | 0.00 | 0.00 | 0.00 | 47 | 1013.7 |
| 20260508215847 | 18 | 126 | 0.0 | 0.0 | 0.00 | 0.00 | 0.00 | 47 | 1013.8 |
| 20260508215745 | 18 | 202 | 0.0 | 0.0 | 0.00 | 0.00 | 0.00 | 47 | 1013.8 |
| 20260508215646 | 18 | 132 | 0.0 | 3.2 | 0.00 | 0.00 | 0.00 | 46 | 1013.8 |
| 20260508215538 | 18 | 196 | 1.6 | 6.4 | 0.00 | 0.00 | 0.00 | 48 | 1013.7 |
| 20260508215438 | 18 | 184 | 1.6 | 9.7 | 0.00 | 0.00 | 0.00 | 47 | 1013.7 |
| 20260508215339 | 17 | 132 | 1.6 | 11.3 | 0.00 | 0.00 | 0.00 | 46 | 1013.7 |
| 20260508215238 | 17 | 156 | 3.2 | 11.3 | 0.00 | 0.00 | 0.00 | 46 | 1013.8 |
| 20260508215136 | 17 | 167 | 3.2 | 11.3 | 0.00 | 0.00 | 0.00 | 47 | 1013.7 |
| 20260508215033 | 17 | 121 | 4.8 | 12.9 | 0.00 | 0.00 | 0.00 | 47 | 1013.7 |
| 20260508214934 | 17 | 134 | 4.8 | 12.9 | 0.00 | 0.00 | 0.00 | 49 | 1013.7 |
| 20260508214835 | 17 | 134 | 4.8 | 12.9 | 0.00 | 0.00 | 0.00 | 49 | 1013.7 |
| 20260508214732 | 17 | 134 | 6.4 | 12.9 | 0.00 | 0.00 | 0.00 | 48 | 1013.8 |
| 20260508214631 | 17 | 133 | 6.4 | 12.9 | 0.00 | 0.00 | 0.00 | 47 | 1013.7 |
| 20260508214523 | 17 | 115 | 6.4 | 12.9 | 0.00 | 0.00 | 0.00 | 48 | 1013.7 |
| 20260508214424 | 17 | 102 | 4.8 | 12.9 | 0.00 | 0.00 | 0.00 | 46 | 1013.8 |
| 20260508214325 | 17 | 138 | 4.8 | 12.9 | 0.00 | 0.00 | 0.00 | 45 | 1013.8 |
| 20260508214225 | 17 | 137 | 4.8 | 12.9 | 0.00 | 0.00 | 0.00 | 46 | 1013.8 |
| 20260508214125 | 17 | 136 | 4.8 | 11.3 | 0.00 | 0.00 | 0.00 | 47 | 1013.8 |
| 20260508214013 | 17 | 167 | 4.8 | 11.3 | 0.00 | 0.00 | 0.00 | 47 | 1013.8 |
| 20260508213914 | 17 | 134 | 4.8 | 11.3 | 0.00 | 0.00 | 0.00 | 45 | 1013.9 |
| 20260508213814 | 17 | 133 | 3.2 | 11.3 | 0.00 | 0.00 | 0.00 | 46 | 1013.9 |
| 20260508213715 | 17 | 131 | 3.2 | 11.3 | 0.00 | 0.00 | 0.00 | 47 | 1013.9 |
| 20260508213614 | 17 | 131 | 3.2 | 11.3 | 0.00 | 0.00 | 0.00 | 46 | 1013.9 |
| 20260508213512 | 17 | 171 | 3.2 | 11.3 | 0.00 | 0.00 | 0.00 | 45 | 1013.9 |
| 20260508213410 | 17 | 128 | 1.6 | 9.7 | 0.00 | 0.00 | 0.00 | 45 | 1013.9 |
| 20260508213309 | 17 | 107 | 1.6 | 9.7 | 0.00 | 0.00 | 0.00 | 44 | 1013.9 |
| 20260508213207 | 17 | 165 | 1.6 | 9.7 | 0.00 | 0.00 | 0.00 | 44 | 1013.9 |
| 20260508213109 | 18 | 143 | 0.0 | 9.7 | 0.00 | 0.00 | 0.00 | 44 | 1014.0 |
| 20260508213002 | 18 | 123 | 0.0 | 8.0 | 0.00 | 0.00 | 0.00 | 45 | 1014.0 |
| 20260508212902 | 18 | 128 | 0.0 | 0.0 | 0.00 | 0.00 | 0.00 | 45 | 1013.9 |
| 20260508212803 | 18 | 126 | 0.0 | 0.0 | 0.00 | 0.00 | 0.00 | 43 | 1013.9 |
| 20260508212702 | 18 | 129 | 0.0 | 0.0 | 0.00 | 0.00 | 0.00 | 46 | 1013.9 |
| 20260508212602 | 18 | 121 | 0.0 | 0.0 | 0.00 | 0.00 | 0.00 | 46 | 1013.9 |
| 20260508212454 | 18 | 121 | 0.0 | 0.0 | 0.00 | 0.00 | 0.00 | 44 | 1013.9 |
| 20260508212352 | 18 | 152 | 0.0 | 0.0 | 0.00 | 0.00 | 0.00 | 42 | 1014.0 |
| 20260508212252 | 18 | 153 | 0.0 | 0.0 | 0.00 | 0.00 | 0.00 | 42 | 1013.9 |
| 20260508212151 | 18 | 182 | 0.0 | 0.0 | 0.00 | 0.00 | 0.00 | 44 | 1013.9 |
| 20260508212053 | 18 | 151 | 0.0 | 0.0 | 0.00 | 0.00 | 0.00 | 44 | 1013.9 |
| 20260508211950 | 18 | 181 | 0.0 | 0.0 | 0.00 | 0.00 | 0.00 | 42 | 1014.0 |
| 20260508211851 | 18 | 151 | 0.0 | 0.0 | 0.00 | 0.00 | 0.00 | 45 | 1014.0 |
| 20260508211751 | 18 | 148 | 0.0 | 0.0 | 0.00 | 0.00 | 0.00 | 44 | 1014.0 |
| 20260508211649 | 18 | 150 | 0.0 | 0.0 | 0.00 | 0.00 | 0.00 | 46 | 1013.9 |
| 20260508211546 | 18 | 172 | 0.0 | 0.0 | 0.00 | 0.00 | 0.00 | 45 | 1014.0 |
| 20260508211447 | 18 | 136 | 0.0 | 0.0 | 0.00 | 0.00 | 0.00 | 45 | 1014.0 |
| 20260508211345 | 18 | 137 | 0.0 | 0.0 | 0.00 | 0.00 | 0.00 | 46 | 1014.0 |
| 20260508211244 | 18 | 204 | 0.0 | 0.0 | 0.00 | 0.00 | 0.00 | 45 | 1014.0 |
| 20260508211143 | 18 | 167 | 0.0 | 0.0 | 0.00 | 0.00 | 0.00 | 46 | 1014.0 |
| 20260508211041 | 18 | 168 | 0.0 | 0.0 | 0.00 | 0.00 | 0.00 | 47 | 1014.1 |
| 20260508210935 | 18 | 170 | 0.0 | 0.0 | 0.00 | 0.00 | 0.00 | 45 | 1014.0 |
| 20260508210834 | 18 | 171 | 0.0 | 0.0 | 0.00 | 0.00 | 0.00 | 45 | 1014.0 |
| 20260508210735 | 18 | 132 | 0.0 | 0.0 | 0.00 | 0.00 | 0.00 | 45 | 1014.1 |
| 20260508210632 | 18 | 134 | 0.0 | 0.0 | 0.00 | 0.00 | 0.00 | 45 | 1014.0 |
| 20260508210530 | 18 | 117 | 0.0 | 0.0 | 0.00 | 0.00 | 0.00 | 45 | 1014.0 |
| 20260508210429 | 18 | 132 | 0.0 | 0.0 | 0.00 | 0.00 | 0.00 | 47 | 1014.0 |
| 20260508210328 | 18 | 178 | 0.0 | 0.0 | 0.00 | 0.00 | 0.00 | 44 | 1014.0 |
| 20260508210228 | 18 | 200 | 0.0 | 0.0 | 0.00 | 0.00 | 0.00 | 46 | 1014.1 |
| 20260508210127 | 18 | 159 | 0.0 | 0.0 | 0.00 | 0.00 | 0.00 | 45 | 1014.1 |
| 20260508210025 | 18 | 110 | 0.0 | 0.0 | 0.00 | 0.00 | 0.00 | 44 | 1014.0 |
| 20260508205920 | 18 | 150 | 0.0 | 0.0 | 0.00 | 0.00 | 0.00 | 45 | 1014.0 |
| 20260508205819 | 18 | 150 | 0.0 | 0.0 | 0.00 | 0.00 | 0.00 | 44 | 1014.1 |
| 20260508205719 | 18 | 150 | 0.0 | 0.0 | 0.00 | 0.00 | 0.00 | 44 | 1014.0 |
| 20260508205618 | 18 | 150 | 0.0 | 0.0 | 0.00 | 0.00 | 0.00 | 43 | 1014.0 |
| 20260508205519 | 18 | 153 | 0.0 | 0.0 | 0.00 | 0.00 | 0.00 | 43 | 1014.2 |
| 20260508205409 | 18 | 161 | 0.0 | 0.0 | 0.00 | 0.00 | 0.00 | 44 | 1014.1 |
| 20260508205310 | 18 | 144 | 0.0 | 0.0 | 0.00 | 0.00 | 0.00 | 44 | 1014.1 |
| 20260508205209 | 18 | 165 | 0.0 | 0.0 | 0.00 | 0.00 | 0.00 | 47 | 1014.2 |
| 20260508205111 | 18 | 153 | 0.0 | 0.0 | 0.00 | 0.00 | 0.00 | 46 | 1014.3 |
| 20260508205009 | 18 | 201 | 0.0 | 0.0 | 0.00 | 0.00 | 0.00 | 45 | 1014.3 |
| 20260508204902 | 18 | 162 | 0.0 | 0.0 | 0.00 | 0.00 | 0.00 | 45 | 1014.3 |
| 20260508204801 | 18 | 158 | 0.0 | 0.0 | 0.00 | 0.00 | 0.00 | 45 | 1014.4 |
| 20260508204702 | 18 | 143 | 0.0 | 0.0 | 0.00 | 0.00 | 0.00 | 43 | 1014.3 |
| 20260508204601 | 18 | 124 | 0.0 | 0.0 | 0.00 | 0.00 | 0.00 | 45 | 1014.3 |
| 20260508204502 | 18 | 105 | 0.0 | 0.0 | 0.00 | 0.00 | 0.00 | 46 | 1014.4 |
| 20260508204401 | 18 | 126 | 0.0 | 0.0 | 0.00 | 0.00 | 0.00 | 45 | 1014.3 |
| 20260508204300 | 18 | 120 | 0.0 | 0.0 | 0.00 | 0.00 | 0.00 | 45 | 1014.4 |
| 20260508204159 | 18 | 134 | 0.0 | 0.0 | 0.00 | 0.00 | 0.00 | 44 | 1014.3 |
| 20260508204059 | 18 | 134 | 0.0 | 0.0 | 0.00 | 0.00 | 0.00 | 45 | 1014.4 |
| 20260508203957 | 18 | 135 | 0.0 | 0.0 | 0.00 | 0.00 | 0.00 | 44 | 1014.4 |
| 20260508203850 | 18 | 124 | 0.0 | 0.0 | 0.00 | 0.00 | 0.00 | 43 | 1014.4 |
| 20260508203747 | 18 | 175 | 0.0 | 0.0 | 0.00 | 0.00 | 0.00 | 44 | 1014.4 |
| 20260508203646 | 18 | 150 | 0.0 | 0.0 | 0.00 | 0.00 | 0.00 | 45 | 1014.4 |
| 20260508203547 | 18 | 178 | 0.0 | 0.0 | 0.00 | 0.00 | 0.00 | 44 | 1014.5 |
| 20260508203447 | 18 | 119 | 0.0 | 0.0 | 0.00 | 0.00 | 0.00 | 43 | 1014.4 |
| 20260508203340 | 18 | 152 | 0.0 | 0.0 | 0.00 | 0.00 | 0.00 | 45 | 1014.4 |
| 20260508203240 | 18 | 105 | 0.0 | 0.0 | 0.00 | 0.00 | 0.00 | 44 | 1014.4 |
| 20260508203141 | 18 | 102 | 0.0 | 0.0 | 0.00 | 0.00 | 0.00 | 45 | 1014.5 |
| 20260508203040 | 18 | 102 | 0.0 | 0.0 | 0.00 | 0.00 | 0.00 | 43 | 1014.4 |
| 20260508202941 | 18 | 144 | 0.0 | 0.0 | 0.00 | 0.00 | 0.00 | 44 | 1014.5 |
| 20260508202839 | 18 | 157 | 0.0 | 0.0 | 0.00 | 0.00 | 0.00 | 43 | 1014.6 |
| 20260508202738 | 18 | 120 | 0.0 | 0.0 | 0.00 | 0.00 | 0.00 | 42 | 1014.6 |
| 20260508202639 | 18 | 123 | 0.0 | 0.0 | 0.00 | 0.00 | 0.00 | 42 | 1014.5 |
| 20260508202538 | 18 | 113 | 0.0 | 0.0 | 0.00 | 0.00 | 0.00 | 43 | 1014.5 |
| 20260508202435 | 18 | 115 | 0.0 | 0.0 | 0.00 | 0.00 | 0.00 | 43 | 1014.5 |
| 20260508202325 | 18 | 119 | 0.0 | 0.0 | 0.00 | 0.00 | 0.00 | 44 | 1014.6 |
| 20260508202224 | 18 | 87 | 0.0 | 0.0 | 0.00 | 0.00 | 0.00 | 41 | 1014.7 |
| 20260508202124 | 18 | 128 | 0.0 | 0.0 | 0.00 | 0.00 | 0.00 | 41 | 1014.7 |
| 20260508202025 | 18 | 112 | 0.0 | 0.0 | 0.00 | 0.00 | 0.00 | 39 | 1014.7 |
| 20260508201929 | 18 | 115 | 0.0 | 0.0 | 0.00 | 0.00 | 0.00 | 42 | 1014.8 |
| 20260508201820 | 18 | 123 | 0.0 | 0.0 | 0.00 | 0.00 | 0.00 | 40 | 1014.8 |
| 20260508201721 | 18 | 153 | 0.0 | 0.0 | 0.00 | 0.00 | 0.00 | 40 | 1014.9 |
| 20260508201620 | 18 | 141 | 0.0 | 0.0 | 0.00 | 0.00 | 0.00 | 40 | 1015.0 |
| 20260508201521 | 18 | 112 | 0.0 | 0.0 | 0.00 | 0.00 | 0.00 | 40 | 1015.0 |
| 20260508201419 | 18 | 197 | 0.0 | 0.0 | 0.00 | 0.00 | 0.00 | 39 | 1015.1 |
| 20260508201319 | 18 | 177 | 0.0 | 0.0 | 0.00 | 0.00 | 0.00 | 39 | 1015.3 |
| 20260508201217 | 18 | 148 | 0.0 | 0.0 | 0.00 | 0.00 | 0.00 | 40 | 1015.3 |
| 20260508201116 | 18 | 151 | 0.0 | 0.0 | 0.00 | 0.00 | 0.00 | 38 | 1015.3 |
| 20260508201015 | 18 | 130 | 0.0 | 0.0 | 0.00 | 0.00 | 0.00 | 39 | 1015.3 |
| 20260508200913 | 18 | 144 | 0.0 | 0.0 | 0.00 | 0.00 | 0.00 | 40 | 1015.3 |
| 20260508200801 | 18 | 120 | 0.0 | 0.0 | 0.00 | 0.00 | 0.00 | 40 | 1015.3 |
| 20260508200702 | 18 | 136 | 0.0 | 0.0 | 0.00 | 0.00 | 0.00 | 42 | 1015.4 |
| 20260508200603 | 18 | 138 | 0.0 | 0.0 | 0.00 | 0.00 | 0.00 | 40 | 1015.3 |
| 20260508200503 | 18 | 153 | 0.0 | 0.0 | 0.00 | 0.00 | 0.00 | 41 | 1015.3 |
| 20260508200402 | 18 | 157 | 0.0 | 0.0 | 0.00 | 0.00 | 0.00 | 40 | 1015.1 |
| 20260508200259 | 18 | 148 | 0.0 | 0.0 | 0.00 | 0.00 | 0.00 | 39 | 1015.1 |
| 20260508200156 | 18 | 111 | 0.0 | 0.0 | 0.00 | 0.00 | 0.00 | 39 | 1015.1 |
| 20260508200056 | 18 | 158 | 0.0 | 0.0 | 0.00 | 0.00 | 0.00 | 39 | 1015.3 |
| 20260508195956 | 18 | 123 | 0.0 | 0.0 | 0.00 | 0.00 | 0.00 | 38 | 1015.4 |
| 20260508195857 | 18 | 146 | 0.0 | 0.0 | 0.00 | 0.00 | 0.00 | 37 | 1015.3 |
| 20260508195755 | 18 | 160 | 0.0 | 0.0 | 0.00 | 0.00 | 0.00 | 39 | 1015.3 |
| 20260508195654 | 18 | 113 | 0.0 | 0.0 | 0.00 | 0.00 | 0.00 | 40 | 1015.3 |
| 20260508195554 | 18 | 174 | 0.0 | 0.0 | 0.00 | 0.00 | 0.00 | 38 | 1015.1 |
| 20260508195453 | 18 | 117 | 0.0 | 0.0 | 0.00 | 0.00 | 0.00 | 38 | 1015.1 |
| 20260508195350 | 18 | 121 | 0.0 | 0.0 | 0.00 | 0.00 | 0.00 | 38 | 1015.1 |
| 20260508195245 | 18 | 140 | 0.0 | 0.0 | 0.00 | 0.00 | 0.00 | 37 | 1015.3 |
| 20260508195145 | 18 | 154 | 0.0 | 0.0 | 0.00 | 0.00 | 0.00 | 39 | 1015.4 |
| 20260508195044 | 18 | 156 | 0.0 | 0.0 | 0.00 | 0.00 | 0.00 | 38 | 1015.4 |
| 20260508194942 | 18 | 114 | 0.0 | 0.0 | 0.00 | 0.00 | 0.00 | 36 | 1015.3 |
| 20260508194841 | 18 | 209 | 0.0 | 0.0 | 0.00 | 0.00 | 0.00 | 37 | 1015.3 |
| 20260508194741 | 18 | 143 | 0.0 | 0.0 | 0.00 | 0.00 | 0.00 | 38 | 1015.3 |
| 20260508194638 | 18 | 155 | 0.0 | 0.0 | 0.00 | 0.00 | 0.00 | 39 | 1015.4 |
| 20260508194539 | 18 | 136 | 0.0 | 0.0 | 0.00 | 0.00 | 0.00 | 38 | 1015.4 |
| 20260508194436 | 18 | 173 | 0.0 | 0.0 | 0.00 | 0.00 | 0.00 | 40 | 1015.4 |
| 20260508194335 | 18 | 168 | 0.0 | 0.0 | 0.00 | 0.00 | 0.00 | 37 | 1015.4 |
| 20260508194229 | 18 | 130 | 0.0 | 0.0 | 0.00 | 0.00 | 0.00 | 37 | 1015.4 |
| 20260508194128 | 18 | 132 | 0.0 | 0.0 | 0.00 | 0.00 | 0.00 | 39 | 1015.4 |
| 20260508194030 | 18 | 162 | 0.0 | 0.0 | 0.00 | 0.00 | 0.00 | 37 | 1015.5 |
| 20260508193928 | 18 | 208 | 0.0 | 0.0 | 0.00 | 0.00 | 0.00 | 37 | 1015.5 |
| 20260508193829 | 18 | 104 | 0.0 | 0.0 | 0.00 | 0.00 | 0.00 | 37 | 1015.5 |
| 20260508193718 | 18 | 148 | 0.0 | 0.0 | 0.00 | 0.00 | 0.00 | 37 | 1015.5 |
| 20260508193617 | 18 | 148 | 0.0 | 0.0 | 0.00 | 0.00 | 0.00 | 39 | 1015.6 |
| 20260508193519 | 18 | 128 | 0.0 | 0.0 | 0.00 | 0.00 | 0.00 | 39 | 1015.6 |
| 20260508193418 | 18 | 104 | 0.0 | 0.0 | 0.00 | 0.00 | 0.00 | 39 | 1015.5 |
| 20260508193319 | 18 | 147 | 0.0 | 0.0 | 0.00 | 0.00 | 0.00 | 37 | 1015.4 |
| 20260508193212 | 18 | 114 | 0.0 | 0.0 | 0.00 | 0.00 | 0.00 | 37 | 1015.4 |
| 20260508193111 | 18 | 163 | 0.0 | 0.0 | 0.00 | 0.00 | 0.00 | 38 | 1015.3 |
| 20260508193013 | 18 | 122 | 0.0 | 0.0 | 0.00 | 0.00 | 0.00 | 38 | 1015.5 |
| 20260508192911 | 18 | 153 | 0.0 | 0.0 | 0.00 | 0.00 | 0.00 | 39 | 1015.5 |
| 20260508192813 | 18 | 134 | 0.0 | 0.0 | 0.00 | 0.00 | 0.00 | 39 | 1015.4 |
| 20260508192707 | 18 | 110 | 0.0 | 0.0 | 0.00 | 0.00 | 0.00 | 38 | 1015.4 |
| 20260508192606 | 18 | 193 | 0.0 | 0.0 | 0.00 | 0.00 | 0.00 | 39 | 1015.5 |
| 20260508192507 | 18 | 85 | 0.0 | 0.0 | 0.00 | 0.00 | 0.00 | 38 | 1015.5 |
| 20260508192405 | 18 | 316 | 0.0 | 0.0 | 0.00 | 0.00 | 0.00 | 38 | 1015.6 |
| 20260508192307 | 18 | 153 | 0.0 | 0.0 | 0.00 | 0.00 | 0.00 | 40 | 1015.6 |
| 20260508192201 | 18 | 183 | 0.0 | 0.0 | 0.00 | 0.00 | 0.00 | 38 | 1015.6 |
| 20260508192059 | 18 | 76 | 0.0 | 0.0 | 0.00 | 0.00 | 0.00 | 38 | 1015.7 |
| 20260508192000 | 18 | 128 | 0.0 | 0.0 | 0.00 | 0.00 | 0.00 | 39 | 1015.7 |
| 20260508191858 | 18 | 152 | 0.0 | 1.6 | 0.00 | 0.00 | 0.00 | 40 | 1015.8 |
| 20260508191756 | 18 | 128 | 0.0 | 1.6 | 0.00 | 0.00 | 0.00 | 41 | 1015.7 |
| 20260508191653 | 18 | 162 | 0.0 | 1.6 | 0.00 | 0.00 | 0.00 | 41 | 1015.8 |
| 20260508191549 | 18 | 178 | 0.0 | 1.6 | 0.00 | 0.00 | 0.00 | 40 | 1015.8 |
| 20260508191451 | 18 | 156 | 0.0 | 1.6 | 0.00 | 0.00 | 0.00 | 41 | 1015.8 |
| 20260508191350 | 18 | 141 | 0.0 | 1.6 | 0.00 | 0.00 | 0.00 | 45 | 1015.8 |
| 20260508191251 | 18 | 105 | 0.0 | 1.6 | 0.00 | 0.00 | 0.00 | 42 | 1015.8 |
| 20260508191147 | 18 | 143 | 0.0 | 1.6 | 0.00 | 0.00 | 0.00 | 41 | 1015.7 |
| 20260508191046 | 18 | 122 | 0.0 | 1.6 | 0.00 | 0.00 | 0.00 | 40 | 1015.7 |
| 20260508190946 | 18 | 134 | 0.0 | 1.6 | 0.00 | 0.00 | 0.00 | 41 | 1015.7 |
| 20260508190846 | 18 | 111 | 0.0 | 1.6 | 0.00 | 0.00 | 0.00 | 41 | 1015.7 |
| 20260508190745 | 18 | 135 | 0.0 | 1.6 | 0.00 | 0.00 | 0.00 | 39 | 1015.8 |
| 20260508190636 | 18 | 155 | 0.0 | 1.6 | 0.00 | 0.00 | 0.00 | 40 | 1015.8 |
| 20260508190536 | 18 | 144 | 0.0 | 1.6 | 0.00 | 0.00 | 0.00 | 43 | 1015.7 |
| 20260508190436 | 18 | 173 | 0.0 | 1.6 | 0.00 | 0.00 | 0.00 | 41 | 1015.7 |
| 20260508190336 | 18 | 117 | 0.0 | 1.6 | 0.00 | 0.00 | 0.00 | 40 | 1015.8 |
| 20260508190234 | 18 | 127 | 0.0 | 6.4 | 0.00 | 0.00 | 0.00 | 39 | 1015.8 |
| 20260508190134 | 18 | 130 | 0.0 | 6.4 | 0.00 | 0.00 | 0.00 | 39 | 1015.8 |
| 20260508190034 | 18 | 134 | 1.6 | 8.0 | 0.00 | 0.00 | 0.00 | 41 | 1015.9 |
| 20260508185931 | 18 | 140 | 1.6 | 8.0 | 0.00 | 0.00 | 0.00 | 41 | 1015.9 |
| 20260508185829 | 18 | 163 | 1.6 | 11.3 | 0.00 | 0.00 | 0.00 | 41 | 1015.8 |
| 20260508185728 | 18 | 148 | 3.2 | 11.3 | 0.00 | 0.00 | 0.00 | 42 | 1015.9 |
| 20260508185622 | 18 | 162 | 3.2 | 11.3 | 0.00 | 0.00 | 0.00 | 44 | 1015.9 |
| 20260508185522 | 18 | 161 | 3.2 | 11.3 | 0.00 | 0.00 | 0.00 | 43 | 1015.8 |
| 20260508185422 | 18 | 169 | 3.2 | 11.3 | 0.00 | 0.00 | 0.00 | 45 | 1015.9 |
| 20260508185323 | 18 | 157 | 4.8 | 11.3 | 0.00 | 0.00 | 0.00 | 44 | 1015.9 |
| 20260508185223 | 18 | 175 | 4.8 | 11.3 | 0.00 | 0.00 | 0.00 | 40 | 1015.9 |
| 20260508185115 | 18 | 160 | 4.8 | 11.3 | 0.00 | 0.00 | 0.00 | 42 | 1015.9 |
| 20260508185017 | 18 | 140 | 4.8 | 11.3 | 0.00 | 0.00 | 0.00 | 44 | 1015.8 |
| 20260508184914 | 18 | 140 | 6.4 | 11.3 | 0.00 | 0.00 | 0.00 | 43 | 1015.9 |
| 20260508184815 | 17 | 135 | 6.4 | 14.5 | 0.00 | 0.00 | 0.00 | 43 | 1015.9 |
| 20260508184712 | 17 | 146 | 6.4 | 16.1 | 0.00 | 0.00 | 0.00 | 43 | 1016.0 |
| 20260508184606 | 17 | 51 | 6.4 | 16.1 | 0.00 | 0.00 | 0.00 | 42 | 1016.0 |
| 20260508184507 | 17 | 45 | 8.0 | 16.1 | 0.00 | 0.00 | 0.00 | 38 | 1015.9 |
| 20260508184406 | 17 | 94 | 8.0 | 16.1 | 0.00 | 0.00 | 0.00 | 39 | 1016.0 |
| 20260508184306 | 17 | 120 | 9.7 | 17.7 | 0.00 | 0.00 | 0.00 | 40 | 1016.0 |
| 20260508184206 | 17 | 128 | 9.7 | 17.7 | 0.00 | 0.00 | 0.00 | 39 | 1016.0 |
| 20260508184100 | 17 | 121 | 11.3 | 17.7 | 0.00 | 0.00 | 0.00 | 38 | 1016.0 |
| 20260508184001 | 17 | 111 | 11.3 | 19.3 | 0.00 | 0.00 | 0.00 | 39 | 1016.1 |
| 20260508183901 | 17 | 111 | 11.3 | 19.3 | 0.00 | 0.00 | 0.00 | 40 | 1016.0 |
| 20260508183800 | 17 | 117 | 11.3 | 19.3 | 0.00 | 0.00 | 0.00 | 39 | 1016.0 |
| 20260508183700 | 17 | 142 | 11.3 | 19.3 | 0.00 | 0.00 | 0.00 | 38 | 1016.0 |
| 20260508183551 | 18 | 151 | 11.3 | 19.3 | 0.00 | 0.00 | 0.00 | 38 | 1016.0 |
| 20260508183451 | 18 | 163 | 11.3 | 19.3 | 0.00 | 0.00 | 0.00 | 40 | 1016.0 |
| 20260508183350 | 18 | 114 | 11.3 | 19.3 | 0.00 | 0.00 | 0.00 | 40 | 1016.0 |
| 20260508183250 | 18 | 129 | 11.3 | 19.3 | 0.00 | 0.00 | 0.00 | 40 | 1016.0 |
| 20260508183150 | 18 | 141 | 9.7 | 19.3 | 0.00 | 0.00 | 0.00 | 41 | 1016.0 |
| 20260508183045 | 18 | 104 | 9.7 | 19.3 | 0.00 | 0.00 | 0.00 | 41 | 1016.0 |
| 20260508182946 | 18 | 133 | 8.0 | 19.3 | 0.00 | 0.00 | 0.00 | 38 | 1016.0 |
| 20260508182847 | 18 | 113 | 8.0 | 17.7 | 0.00 | 0.00 | 0.00 | 39 | 1016.1 |
| 20260508182747 | 18 | 140 | 8.0 | 17.7 | 0.00 | 0.00 | 0.00 | 38 | 1016.0 |
| 20260508182645 | 18 | 99 | 6.4 | 17.7 | 0.00 | 0.00 | 0.00 | 40 | 1016.1 |
| 20260508182539 | 18 | 110 | 4.8 | 17.7 | 0.00 | 0.00 | 0.00 | 38 | 1016.1 |
| 20260508182439 | 18 | 132 | 4.8 | 17.7 | 0.00 | 0.00 | 0.00 | 40 | 1016.1 |
| 20260508182338 | 18 | 146 | 4.8 | 17.7 | 0.00 | 0.00 | 0.00 | 38 | 1016.1 |
| 20260508182238 | 18 | 143 | 4.8 | 17.7 | 0.00 | 0.00 | 0.00 | 41 | 1016.1 |
| 20260508182138 | 18 | 130 | 3.2 | 12.9 | 0.00 | 0.00 | 0.00 | 39 | 1016.1 |
| 20260508182028 | 18 | 233 | 4.8 | 16.1 | 0.00 | 0.00 | 0.00 | 37 | 1016.1 |
| 20260508181927 | 18 | 171 | 4.8 | 16.1 | 0.00 | 0.00 | 0.00 | 39 | 1016.1 |
| 20260508181829 | 18 | 169 | 4.8 | 16.1 | 0.00 | 0.00 | 0.00 | 40 | 1016.1 |
| 20260508181729 | 18 | 121 | 4.8 | 16.1 | 0.00 | 0.00 | 0.00 | 39 | 1016.2 |
| 20260508181629 | 18 | 121 | 6.4 | 16.1 | 0.00 | 0.00 | 0.00 | 45 | 1016.1 |
| 20260508181523 | 18 | 92 | 6.4 | 16.1 | 0.00 | 0.00 | 0.00 | 44 | 1016.2 |
| 20260508181423 | 18 | 92 | 4.8 | 16.1 | 0.00 | 0.00 | 0.00 | 41 | 1016.1 |
| 20260508181324 | 17 | 72 | 6.4 | 16.1 | 0.00 | 0.00 | 0.00 | 39 | 1016.2 |
| 20260508181224 | 17 | 167 | 6.4 | 16.1 | 0.00 | 0.00 | 0.00 | 41 | 1016.2 |
| 20260508181123 | 17 | 179 | 6.4 | 16.1 | 0.00 | 0.00 | 0.00 | 40 | 1016.2 |
| 20260508181017 | 17 | 163 | 6.4 | 16.1 | 0.00 | 0.00 | 0.00 | 43 | 1016.2 |
| 20260508180915 | 17 | 99 | 6.4 | 14.5 | 0.00 | 0.00 | 0.00 | 42 | 1016.2 |
| 20260508180817 | 17 | 143 | 6.4 | 14.5 | 0.00 | 0.00 | 0.00 | 43 | 1016.1 |
| 20260508180717 | 17 | 96 | 6.4 | 14.5 | 0.00 | 0.00 | 0.00 | 39 | 1016.1 |
| 20260508180616 | 17 | 102 | 6.4 | 14.5 | 0.00 | 0.00 | 0.00 | 39 | 1016.2 |
| 20260508180507 | 17 | 126 | 6.4 | 14.5 | 0.00 | 0.00 | 0.00 | 38 | 1016.2 |
| 20260508180407 | 17 | 155 | 8.0 | 17.7 | 0.00 | 0.00 | 0.00 | 39 | 1016.3 |
| 20260508180307 | 17 | 141 | 8.0 | 20.9 | 0.00 | 0.00 | 0.00 | 40 | 1016.2 |
| 20260508180205 | 17 | 159 | 9.7 | 20.9 | 0.00 | 0.00 | 0.00 | 39 | 1016.3 |
| 20260508180106 | 17 | 180 | 9.7 | 20.9 | 0.00 | 0.00 | 0.00 | 44 | 1016.3 |
| 20260508175959 | 17 | 111 | 9.7 | 20.9 | 0.00 | 0.00 | 0.00 | 40 | 1016.3 |
| 20260508175900 | 17 | 160 | 11.3 | 20.9 | 0.00 | 0.00 | 0.00 | 40 | 1016.3 |
| 20260508175800 | 17 | 123 | 11.3 | 20.9 | 0.00 | 0.00 | 0.00 | 40 | 1016.4 |
| 20260508175700 | 17 | 101 | 11.3 | 20.9 | 0.00 | 0.00 | 0.00 | 41 | 1016.3 |
| 20260508175600 | 17 | 95 | 11.3 | 20.9 | 0.00 | 0.00 | 0.00 | 38 | 1016.4 |
| 20260508175453 | 17 | 81 | 11.3 | 20.9 | 0.00 | 0.00 | 0.00 | 39 | 1016.4 |
| 20260508175354 | 17 | 117 | 11.3 | 20.9 | 0.00 | 0.00 | 0.00 | 40 | 1016.4 |
| 20260508175255 | 17 | 120 | 11.3 | 17.7 | 0.00 | 0.00 | 0.00 | 39 | 1016.4 |
| 20260508175155 | 17 | 92 | 11.3 | 17.7 | 0.00 | 0.00 | 0.00 | 41 | 1016.4 |
| 20260508175054 | 17 | 87 | 11.3 | 17.7 | 0.00 | 0.00 | 0.00 | 40 | 1016.5 |
| 20260508174947 | 17 | 103 | 9.7 | 17.7 | 0.00 | 0.00 | 0.00 | 38 | 1016.5 |
| 20260508174843 | 17 | 80 | 9.7 | 17.7 | 0.00 | 0.00 | 0.00 | 36 | 1016.5 |
| 20260508174743 | 18 | 80 | 9.7 | 17.7 | 0.00 | 0.00 | 0.00 | 38 | 1016.5 |
| 20260508174644 | 18 | 104 | 9.7 | 17.7 | 0.00 | 0.00 | 0.00 | 38 | 1016.5 |
| 20260508174544 | 18 | 103 | 8.0 | 17.7 | 0.00 | 0.00 | 0.00 | 39 | 1016.4 |
| 20260508174438 | 18 | 103 | 8.0 | 16.1 | 0.00 | 0.00 | 0.00 | 43 | 1016.5 |
| 20260508174338 | 18 | 117 | 6.4 | 16.1 | 0.00 | 0.00 | 0.00 | 39 | 1016.5 |
| 20260508174239 | 18 | 93 | 6.4 | 16.1 | 0.00 | 0.00 | 0.00 | 39 | 1016.5 |
| 20260508174137 | 18 | 121 | 6.4 | 16.1 | 0.00 | 0.00 | 0.00 | 40 | 1016.5 |
| 20260508174038 | 18 | 125 | 6.4 | 16.1 | 0.00 | 0.00 | 0.00 | 37 | 1016.6 |
| 20260508173933 | 18 | 163 | 4.8 | 16.1 | 0.00 | 0.00 | 0.00 | 40 | 1016.6 |
| 20260508173831 | 18 | 163 | 6.4 | 16.1 | 0.00 | 0.00 | 0.00 | 39 | 1016.6 |
| 20260508173733 | 18 | 138 | 4.8 | 16.1 | 0.00 | 0.00 | 0.00 | 40 | 1016.6 |
| 20260508173631 | 18 | 105 | 4.8 | 14.5 | 0.00 | 0.00 | 0.00 | 41 | 1016.5 |
| 20260508173533 | 18 | 339 | 4.8 | 14.5 | 0.00 | 0.00 | 0.00 | 42 | 1016.6 |
| 20260508173428 | 18 | 264 | 4.8 | 14.5 | 0.00 | 0.00 | 0.00 | 40 | 1016.5 |
| 20260508173327 | 18 | 175 | 4.8 | 14.5 | 0.00 | 0.00 | 0.00 | 43 | 1016.6 |
| 20260508173223 | 18 | 159 | 6.4 | 14.5 | 0.00 | 0.00 | 0.00 | 41 | 1016.6 |
| 20260508173125 | 18 | 207 | 6.4 | 14.5 | 0.00 | 0.00 | 0.00 | 40 | 1016.6 |
| 20260508173022 | 18 | 250 | 6.4 | 14.5 | 0.00 | 0.00 | 0.00 | 40 | 1016.6 |
| 20260508172918 | 18 | 111 | 6.4 | 14.5 | 0.00 | 0.00 | 0.00 | 38 | 1016.6 |
| 20260508172815 | 18 | 136 | 4.8 | 14.5 | 0.00 | 0.00 | 0.00 | 38 | 1016.6 |
| 20260508172716 | 18 | 198 | 4.8 | 14.5 | 0.00 | 0.00 | 0.00 | 39 | 1016.7 |
| 20260508172616 | 18 | 128 | 4.8 | 14.5 | 0.00 | 0.00 | 0.00 | 40 | 1016.7 |
| 20260508172517 | 18 | 134 | 4.8 | 14.5 | 0.00 | 0.00 | 0.00 | 36 | 1016.7 |
| 20260508172409 | 18 | 185 | 4.8 | 14.5 | 0.00 | 0.00 | 0.00 | 42 | 1016.7 |
| 20260508172309 | 18 | 227 | 4.8 | 14.5 | 0.00 | 0.00 | 0.00 | 39 | 1016.9 |
| 20260508172211 | 18 | 198 | 4.8 | 11.3 | 0.00 | 0.00 | 0.00 | 39 | 1016.9 |
| 20260508172110 | 18 | 188 | 4.8 | 11.3 | 0.00 | 0.00 | 0.00 | 38 | 1016.7 |
| 20260508172011 | 18 | 132 | 4.8 | 11.3 | 0.00 | 0.00 | 0.00 | 39 | 1016.9 |
| 20260508171859 | 18 | 217 | 4.8 | 11.3 | 0.00 | 0.00 | 0.00 | 37 | 1016.9 |
| 20260508171801 | 18 | 196 | 4.8 | 11.3 | 0.00 | 0.00 | 0.00 | 40 | 1016.9 |
| 20260508171700 | 18 | 129 | 4.8 | 11.3 | 0.00 | 0.00 | 0.00 | 41 | 1016.7 |
| 20260508171559 | 18 | 101 | 6.4 | 14.5 | 0.00 | 0.00 | 0.00 | 38 | 1016.9 |
| 20260508171501 | 18 | 185 | 6.4 | 14.5 | 0.00 | 0.00 | 0.00 | 42 | 1016.7 |
| 20260508171357 | 18 | 131 | 6.4 | 14.5 | 0.00 | 0.00 | 0.00 | 38 | 1016.9 |
| 20260508171254 | 18 | 140 | 4.8 | 14.5 | 0.00 | 0.00 | 0.00 | 39 | 1016.9 |
| 20260508171155 | 17 | 110 | 4.8 | 14.5 | 0.00 | 0.00 | 0.00 | 42 | 1016.9 |
| 20260508171054 | 17 | 110 | 4.8 | 14.5 | 0.00 | 0.00 | 0.00 | 42 | 1017.0 |
| 20260508170954 | 17 | 110 | 6.4 | 14.5 | 0.00 | 0.00 | 0.00 | 40 | 1016.9 |
| 20260508170850 | 17 | 111 | 6.4 | 14.5 | 0.00 | 0.00 | 0.00 | 41 | 1016.9 |
| 20260508170748 | 17 | 110 | 6.4 | 14.5 | 0.00 | 0.00 | 0.00 | 41 | 1017.0 |
| 20260508170649 | 17 | 109 | 4.8 | 14.5 | 0.00 | 0.00 | 0.00 | 40 | 1017.0 |
| 20260508170547 | 17 | 109 | 4.8 | 12.9 | 0.00 | 0.00 | 0.00 | 44 | 1017.0 |
| 20260508170448 | 17 | 96 | 6.4 | 14.5 | 0.00 | 0.00 | 0.00 | 44 | 1016.9 |
| 20260508170342 | 17 | 115 | 6.4 | 16.1 | 0.00 | 0.00 | 0.00 | 41 | 1016.9 |
| 20260508170242 | 17 | 216 | 8.0 | 16.1 | 0.00 | 0.00 | 0.00 | 43 | 1017.0 |
| 20260508170139 | 17 | 170 | 6.4 | 16.1 | 0.00 | 0.00 | 0.00 | 41 | 1017.2 |
| 20260508170040 | 17 | 127 | 6.4 | 16.1 | 0.00 | 0.00 | 0.00 | 40 | 1017.0 |
| 20260508165939 | 17 | 116 | 6.4 | 16.1 | 0.00 | 0.00 | 0.00 | 41 | 1017.0 |
| 20260508165840 | 17 | 136 | 6.4 | 16.1 | 0.00 | 0.00 | 0.00 | 40 | 1017.1 |
| 20260508165740 | 17 | 165 | 4.8 | 16.1 | 0.00 | 0.00 | 0.00 | 41 | 1017.0 |
| 20260508165641 | 17 | 138 | 4.8 | 16.1 | 0.00 | 0.00 | 0.00 | 40 | 1017.0 |
| 20260508165540 | 17 | 140 | 4.8 | 16.1 | 0.00 | 0.00 | 0.00 | 43 | 1017.0 |
| 20260508165439 | 17 | 118 | 4.8 | 16.1 | 0.00 | 0.00 | 0.00 | 46 | 1017.0 |
| 20260508165340 | 17 | 105 | 4.8 | 16.1 | 0.00 | 0.00 | 0.00 | 44 | 1017.0 |
| 20260508165240 | 17 | 156 | 4.8 | 14.5 | 0.00 | 0.00 | 0.00 | 40 | 1017.0 |
| 20260508165139 | 17 | 141 | 4.8 | 11.3 | 0.00 | 0.00 | 0.00 | 44 | 1017.0 |
| 20260508165039 | 17 | 167 | 4.8 | 11.3 | 0.00 | 0.00 | 0.00 | 44 | 1017.1 |
| 20260508164941 | 17 | 120 | 6.4 | 14.5 | 0.00 | 0.00 | 0.00 | 43 | 1017.0 |
| 20260508164840 | 17 | 120 | 6.4 | 16.1 | 0.00 | 0.00 | 0.00 | 43 | 1017.0 |
| 20260508164743 | 17 | 121 | 8.0 | 16.1 | 0.00 | 0.00 | 0.00 | 41 | 1017.1 |
| 20260508164637 | 17 | 114 | 8.0 | 16.1 | 0.00 | 0.00 | 0.00 | 44 | 1017.0 |
| 20260508164535 | 17 | 113 | 6.4 | 16.1 | 0.00 | 0.00 | 0.00 | 42 | 1017.1 |
| 20260508164434 | 17 | 116 | 6.4 | 16.1 | 0.00 | 0.00 | 0.00 | 42 | 1017.1 |
| 20260508164334 | 17 | 174 | 4.8 | 16.1 | 0.00 | 0.00 | 0.00 | 43 | 1017.1 |
| 20260508164234 | 17 | 134 | 4.8 | 16.1 | 0.00 | 0.00 | 0.00 | 46 | 1017.1 |
| 20260508164128 | 17 | 149 | 6.4 | 16.1 | 0.00 | 0.00 | 0.00 | 44 | 1017.2 |
| 20260508164027 | 17 | 150 | 6.4 | 16.1 | 0.00 | 0.00 | 0.00 | 47 | 1017.1 |
| 20260508163929 | 17 | 126 | 4.8 | 16.1 | 0.00 | 0.00 | 0.00 | 46 | 1017.1 |
| 20260508163828 | 17 | 98 | 4.8 | 14.5 | 0.00 | 0.00 | 0.00 | 48 | 1017.1 |
| 20260508163729 | 17 | 105 | 4.8 | 11.3 | 0.00 | 0.00 | 0.00 | 49 | 1017.1 |
| 20260508163623 | 17 | 51 | 4.8 | 11.3 | 0.00 | 0.00 | 0.00 | 52 | 1017.1 |
| 20260508163523 | 17 | 24 | 4.8 | 11.3 | 0.00 | 0.00 | 0.00 | 47 | 1017.1 |
| 20260508163422 | 16 | 22 | 4.8 | 11.3 | 0.00 | 0.00 | 0.00 | 47 | 1017.1 |
| 20260508163323 | 16 | 20 | 6.4 | 11.3 | 0.00 | 0.00 | 0.00 | 48 | 1017.1 |
| 20260508163222 | 16 | 20 | 4.8 | 11.3 | 0.00 | 0.00 | 0.00 | 47 | 1017.1 |
| 20260508163122 | 16 | 19 | 4.8 | 11.3 | 0.00 | 0.00 | 0.00 | 47 | 1017.2 |
| 20260508163022 | 16 | 327 | 4.8 | 11.3 | 0.00 | 0.00 | 0.00 | 46 | 1017.3 |
| 20260508162919 | 16 | 327 | 4.8 | 11.3 | 0.00 | 0.00 | 0.00 | 45 | 1017.3 |
| 20260508162820 | 16 | 319 | 4.8 | 11.3 | 0.00 | 0.00 | 0.00 | 45 | 1017.3 |
| 20260508162719 | 16 | 323 | 4.8 | 11.3 | 0.00 | 0.00 | 0.00 | 44 | 1017.2 |
| 20260508162617 | 16 | 98 | 4.8 | 11.3 | 0.00 | 0.00 | 0.00 | 46 | 1017.4 |
| 20260508162515 | 16 | 121 | 4.8 | 11.3 | 0.00 | 0.00 | 0.00 | 46 | 1017.3 |
| 20260508162416 | 16 | 121 | 4.8 | 12.9 | 0.00 | 0.00 | 0.00 | 47 | 1017.4 |
| 20260508162313 | 16 | 117 | 4.8 | 12.9 | 0.00 | 0.00 | 0.00 | 47 | 1017.4 |
| 20260508162213 | 16 | 113 | 4.8 | 12.9 | 0.00 | 0.00 | 0.00 | 45 | 1017.4 |
| 20260508162115 | 16 | 113 | 4.8 | 12.9 | 0.00 | 0.00 | 0.00 | 47 | 1017.4 |
| 20260508162014 | 16 | 113 | 6.4 | 12.9 | 0.00 | 0.00 | 0.00 | 46 | 1017.4 |
| 20260508161913 | 16 | 113 | 6.4 | 12.9 | 0.00 | 0.00 | 0.00 | 46 | 1017.4 |
| 20260508161815 | 16 | 113 | 6.4 | 12.9 | 0.00 | 0.00 | 0.00 | 48 | 1017.6 |
| 20260508161713 | 16 | 124 | 6.4 | 12.9 | 0.00 | 0.00 | 0.00 | 48 | 1017.6 |
| 20260508161612 | 16 | 125 | 6.4 | 12.9 | 0.00 | 0.00 | 0.00 | 46 | 1017.5 |
| 20260508161511 | 16 | 125 | 8.0 | 12.9 | 0.00 | 0.00 | 0.00 | 46 | 1017.6 |
| 20260508161412 | 16 | 142 | 6.4 | 12.9 | 0.00 | 0.00 | 0.00 | 50 | 1017.7 |
| 20260508161311 | 16 | 149 | 6.4 | 12.9 | 0.00 | 0.00 | 0.00 | 51 | 1017.7 |
| 20260508161213 | 16 | 78 | 6.4 | 12.9 | 0.00 | 0.00 | 0.00 | 51 | 1017.7 |
| 20260508161109 | 16 | 61 | 6.4 | 12.9 | 0.00 | 0.00 | 0.00 | 49 | 1017.7 |
| 20260508161010 | 16 | 95 | 6.4 | 12.9 | 0.00 | 0.00 | 0.00 | 48 | 1017.7 |
| 20260508160909 | 16 | 108 | 6.4 | 12.9 | 0.00 | 0.00 | 0.00 | 48 | 1017.7 |
| 20260508160810 | 16 | 97 | 4.8 | 12.9 | 0.00 | 0.00 | 0.00 | 51 | 1017.7 |
| 20260508160711 | 16 | 122 | 4.8 | 11.3 | 0.00 | 0.00 | 0.00 | 49 | 1017.8 |
| 20260508160609 | 16 | 132 | 3.2 | 11.3 | 0.00 | 0.00 | 0.00 | 50 | 1017.8 |
| 20260508160509 | 16 | 47 | 3.2 | 8.0 | 0.00 | 0.00 | 0.00 | 49 | 1017.8 |
| 20260508160412 | 16 | 331 | 3.2 | 8.0 | 0.00 | 0.00 | 0.00 | 46 | 1017.7 |
| 20260508160310 | 16 | 324 | 3.2 | 8.0 | 0.00 | 0.00 | 0.00 | 46 | 1017.8 |
| 20260508160206 | 16 | 324 | 4.8 | 8.0 | 0.00 | 0.00 | 0.00 | 47 | 1017.8 |
| 20260508160103 | 16 | 325 | 4.8 | 8.0 | 0.00 | 0.00 | 0.00 | 50 | 1017.8 |
| 20260508160004 | 16 | 355 | 4.8 | 9.7 | 0.00 | 0.00 | 0.00 | 48 | 1017.9 |
| 20260508155904 | 16 | 46 | 4.8 | 9.7 | 0.00 | 0.00 | 0.00 | 50 | 1017.9 |
| 20260508155804 | 16 | 71 | 4.8 | 9.7 | 0.00 | 0.00 | 0.00 | 48 | 1017.9 |
| 20260508155659 | 16 | 270 | 4.8 | 9.7 | 0.00 | 0.00 | 0.00 | 47 | 1017.8 |
| 20260508155600 | 16 | 310 | 4.8 | 9.7 | 0.00 | 0.00 | 0.00 | 48 | 1017.9 |
| 20260508155459 | 16 | 54 | 4.8 | 9.7 | 0.00 | 0.00 | 0.00 | 47 | 1017.8 |
| 20260508155400 | 16 | 53 | 3.2 | 9.7 | 0.00 | 0.00 | 0.00 | 50 | 1017.9 |
| 20260508155300 | 16 | 40 | 3.2 | 9.7 | 0.00 | 0.00 | 0.00 | 50 | 1017.8 |
| 20260508155200 | 16 | 44 | 3.2 | 9.7 | 0.00 | 0.00 | 0.00 | 50 | 1017.9 |
| 20260508155059 | 16 | 48 | 3.2 | 9.7 | 0.00 | 0.00 | 0.00 | 50 | 1017.9 |
| 20260508155001 | 16 | 88 | 3.2 | 8.0 | 0.00 | 0.00 | 0.00 | 50 | 1017.9 |
| 20260508154859 | 16 | 89 | 3.2 | 8.0 | 0.00 | 0.00 | 0.00 | 48 | 1017.8 |
| 20260508154800 | 16 | 61 | 3.2 | 8.0 | 0.00 | 0.00 | 0.00 | 49 | 1018.0 |
| 20260508154659 | 16 | 56 | 3.2 | 8.0 | 0.00 | 0.00 | 0.00 | 47 | 1017.9 |
| 20260508154559 | 16 | 5 | 3.2 | 8.0 | 0.00 | 0.00 | 0.00 | 47 | 1017.8 |
| 20260508154459 | 16 | 340 | 3.2 | 8.0 | 0.00 | 0.00 | 0.00 | 47 | 1017.8 |
| 20260508154400 | 16 | 340 | 3.2 | 12.9 | 0.00 | 0.00 | 0.00 | 47 | 1017.9 |
| 20260508154300 | 16 | 342 | 4.8 | 12.9 | 0.00 | 0.00 | 0.00 | 47 | 1017.9 |
| 20260508154200 | 16 | 344 | 4.8 | 12.9 | 0.00 | 0.00 | 0.00 | 48 | 1018.0 |
| 20260508154101 | 16 | 311 | 4.8 | 12.9 | 0.00 | 0.00 | 0.00 | 49 | 1018.0 |
| 20260508153959 | 16 | 46 | 4.8 | 12.9 | 0.00 | 0.00 | 0.00 | 49 | 1017.9 |
| 20260508153901 | 16 | 46 | 4.8 | 12.9 | 0.00 | 0.00 | 0.00 | 51 | 1017.9 |
| 20260508153800 | 16 | 78 | 4.8 | 12.9 | 0.00 | 0.00 | 0.00 | 49 | 1018.0 |
| 20260508153700 | 16 | 60 | 4.8 | 12.9 | 0.00 | 0.00 | 0.00 | 50 | 1018.0 |
| 20260508153559 | 16 | 265 | 4.8 | 12.9 | 0.00 | 0.00 | 0.00 | 47 | 1018.0 |
| 20260508153459 | 16 | 289 | 6.4 | 12.9 | 0.00 | 0.00 | 0.00 | 48 | 1018.0 |
| 20260508153400 | 16 | 5 | 4.8 | 12.9 | 0.00 | 0.00 | 0.00 | 48 | 1018.0 |
| 20260508153300 | 16 | 342 | 4.8 | 12.9 | 0.00 | 0.00 | 0.00 | 47 | 1017.9 |
| 20260508153200 | 16 | 309 | 4.8 | 12.9 | 0.00 | 0.00 | 0.00 | 48 | 1018.0 |
| 20260508153056 | 16 | 294 | 6.4 | 12.9 | 0.00 | 0.00 | 0.00 | 49 | 1018.0 |
| 20260508152955 | 16 | 355 | 6.4 | 12.9 | 0.00 | 0.00 | 0.00 | 50 | 1017.9 |
| 20260508152855 | 16 | 13 | 6.4 | 12.9 | 0.00 | 0.00 | 0.00 | 48 | 1017.9 |
| 20260508152756 | 16 | 311 | 6.4 | 12.9 | 0.00 | 0.00 | 0.00 | 48 | 1018.0 |
| 20260508152655 | 16 | 344 | 6.4 | 12.9 | 0.00 | 0.00 | 0.00 | 46 | 1018.0 |
| 20260508152556 | 16 | 327 | 6.4 | 12.9 | 0.00 | 0.00 | 0.00 | 47 | 1018.0 |
| 20260508152457 | 16 | 0 | 4.8 | 12.9 | 0.00 | 0.00 | 0.00 | 47 | 1018.0 |
| 20260508152355 | 16 | 331 | 4.8 | 12.9 | 0.00 | 0.00 | 0.00 | 49 | 1018.0 |
| 20260508152255 | 16 | 325 | 4.8 | 12.9 | 0.00 | 0.00 | 0.00 | 48 | 1018.1 |
| 20260508152155 | 16 | 343 | 4.8 | 12.9 | 0.00 | 0.00 | 0.00 | 49 | 1018.1 |
| 20260508152056 | 16 | 52 | 4.8 | 12.9 | 0.00 | 0.00 | 0.00 | 46 | 1018.1 |
| 20260508151955 | 16 | 74 | 3.2 | 12.9 | 0.00 | 0.00 | 0.00 | 46 | 1018.1 |
| 20260508151856 | 16 | 74 | 3.2 | 12.9 | 0.00 | 0.00 | 0.00 | 45 | 1018.1 |
| 20260508151756 | 16 | 75 | 3.2 | 8.0 | 0.00 | 0.00 | 0.00 | 50 | 1018.1 |
| 20260508151655 | 16 | 330 | 3.2 | 8.0 | 0.00 | 0.00 | 0.00 | 48 | 1018.2 |
| 20260508151556 | 16 | 76 | 3.2 | 9.7 | 0.00 | 0.00 | 0.00 | 49 | 1018.1 |
| 20260508151457 | 16 | 45 | 3.2 | 9.7 | 0.00 | 0.00 | 0.00 | 49 | 1018.1 |
| 20260508151355 | 16 | 38 | 3.2 | 9.7 | 0.00 | 0.00 | 0.00 | 48 | 1018.1 |
| 20260508151255 | 16 | 9 | 3.2 | 9.7 | 0.00 | 0.00 | 0.00 | 49 | 1018.2 |
| 20260508151156 | 16 | 5 | 3.2 | 9.7 | 0.00 | 0.00 | 0.00 | 47 | 1018.1 |
| 20260508151056 | 16 | 9 | 4.8 | 9.7 | 0.00 | 0.00 | 0.00 | 46 | 1018.1 |
| 20260508150956 | 16 | 13 | 4.8 | 9.7 | 0.00 | 0.00 | 0.00 | 47 | 1018.1 |
| 20260508150855 | 16 | 23 | 3.2 | 9.7 | 0.00 | 0.00 | 0.00 | 48 | 1018.1 |
| 20260508150755 | 16 | 32 | 3.2 | 9.7 | 0.00 | 0.00 | 0.00 | 46 | 1018.1 |
| 20260508150655 | 16 | 34 | 3.2 | 9.7 | 0.00 | 0.00 | 0.00 | 51 | 1018.1 |
| 20260508150557 | 16 | 355 | 3.2 | 8.0 | 0.00 | 0.00 | 0.00 | 52 | 1018.1 |
| 20260508150455 | 16 | 355 | 3.2 | 8.0 | 0.00 | 0.00 | 0.00 | 49 | 1018.1 |
| 20260508150356 | 16 | 355 | 3.2 | 8.0 | 0.00 | 0.00 | 0.00 | 47 | 1018.1 |
| 20260508150256 | 16 | 38 | 3.2 | 8.0 | 0.00 | 0.00 | 0.00 | 48 | 1018.1 |
| 20260508150156 | 16 | 24 | 3.2 | 8.0 | 0.00 | 0.00 | 0.00 | 49 | 1018.2 |
| 20260508150056 | 16 | 28 | 3.2 | 8.0 | 0.00 | 0.00 | 0.00 | 48 | 1018.2 |
| 20260508145957 | 16 | 5 | 3.2 | 6.4 | 0.00 | 0.00 | 0.00 | 48 | 1018.1 |
| 20260508145856 | 16 | 328 | 1.6 | 6.4 | 0.00 | 0.00 | 0.00 | 49 | 1018.1 |
| 20260508145752 | 16 | 292 | 1.6 | 6.4 | 0.00 | 0.00 | 0.00 | 50 | 1018.2 |
| 20260508145652 | 16 | 286 | 1.6 | 6.4 | 0.00 | 0.00 | 0.00 | 51 | 1018.2 |
| 20260508145551 | 16 | 286 | 1.6 | 6.4 | 0.00 | 0.00 | 0.00 | 49 | 1018.1 |
| 20260508145452 | 16 | 286 | 1.6 | 6.4 | 0.00 | 0.00 | 0.00 | 49 | 1018.1 |
| 20260508145352 | 15 | 54 | 1.6 | 6.4 | 0.00 | 0.00 | 0.00 | 48 | 1018.2 |
| 20260508145253 | 15 | 55 | 1.6 | 6.4 | 0.00 | 0.00 | 0.00 | 48 | 1018.2 |
| 20260508145153 | 15 | 76 | 1.6 | 6.4 | 0.00 | 0.00 | 0.00 | 49 | 1018.1 |
| 20260508145052 | 15 | 127 | 1.6 | 6.4 | 0.00 | 0.00 | 0.00 | 50 | 1018.1 |
| 20260508144951 | 15 | 336 | 1.6 | 6.4 | 0.00 | 0.00 | 0.00 | 50 | 1018.2 |
| 20260508144853 | 15 | 336 | 1.6 | 6.4 | 0.00 | 0.00 | 0.00 | 50 | 1018.2 |
| 20260508144752 | 15 | 332 | 3.2 | 6.4 | 0.00 | 0.00 | 0.00 | 46 | 1018.2 |
| 20260508144652 | 15 | 212 | 3.2 | 6.4 | 0.00 | 0.00 | 0.00 | 48 | 1018.2 |
| 20260508144551 | 15 | 213 | 3.2 | 9.7 | 0.00 | 0.00 | 0.00 | 49 | 1018.2 |
| 20260508144451 | 15 | 213 | 3.2 | 14.5 | 0.00 | 0.00 | 0.00 | 49 | 1018.2 |
| 20260508144352 | 14 | 296 | 3.2 | 14.5 | 0.00 | 0.00 | 0.00 | 50 | 1018.1 |
| 20260508144253 | 14 | 223 | 3.2 | 14.5 | 0.00 | 0.00 | 0.00 | 50 | 1018.2 |
| 20260508144151 | 14 | 221 | 4.8 | 14.5 | 0.00 | 0.00 | 0.00 | 54 | 1018.1 |
| 20260508144053 | 14 | 12 | 4.8 | 14.5 | 0.00 | 0.00 | 0.00 | 55 | 1018.2 |
| 20260508143953 | 14 | 332 | 4.8 | 14.5 | 0.00 | 0.00 | 0.00 | 52 | 1018.1 |
| 20260508143852 | 14 | 332 | 4.8 | 14.5 | 0.00 | 0.00 | 0.00 | 53 | 1018.3 |
| 20260508143753 | 14 | 334 | 4.8 | 14.5 | 0.00 | 0.00 | 0.00 | 51 | 1018.2 |
| 20260508143651 | 14 | 281 | 4.8 | 14.5 | 0.00 | 0.00 | 0.00 | 50 | 1018.1 |
| 20260508143551 | 14 | 273 | 4.8 | 14.5 | 0.00 | 0.00 | 0.00 | 52 | 1018.1 |
| 20260508143452 | 14 | 334 | 4.8 | 12.9 | 0.00 | 0.00 | 0.00 | 50 | 1018.2 |
| 20260508143352 | 14 | 336 | 4.8 | 12.9 | 0.00 | 0.00 | 0.00 | 50 | 1018.1 |
| 20260508143253 | 14 | 330 | 4.8 | 12.9 | 0.00 | 0.00 | 0.00 | 50 | 1018.2 |
| 20260508143151 | 14 | 315 | 4.8 | 12.9 | 0.00 | 0.00 | 0.00 | 50 | 1018.1 |
| 20260508143051 | 14 | 304 | 4.8 | 12.9 | 0.00 | 0.00 | 0.00 | 50 | 1018.2 |
| 20260508142951 | 14 | 313 | 3.2 | 12.9 | 0.00 | 0.00 | 0.00 | 52 | 1018.2 |
| 20260508142851 | 14 | 318 | 3.2 | 8.0 | 0.00 | 0.00 | 0.00 | 53 | 1018.1 |
| 20260508142751 | 14 | 5 | 3.2 | 8.0 | 0.00 | 0.00 | 0.00 | 52 | 1018.2 |
| 20260508142652 | 14 | 328 | 3.2 | 8.0 | 0.00 | 0.00 | 0.00 | 50 | 1018.2 |
| 20260508142552 | 14 | 331 | 3.2 | 8.0 | 0.00 | 0.00 | 0.00 | 49 | 1018.1 |
| 20260508142448 | 14 | 306 | 3.2 | 8.0 | 0.00 | 0.00 | 0.00 | 48 | 1018.1 |
| 20260508142347 | 14 | 297 | 3.2 | 6.4 | 0.00 | 0.00 | 0.00 | 49 | 1018.2 |
| 20260508142249 | 13 | 297 | 3.2 | 6.4 | 0.00 | 0.00 | 0.00 | 48 | 1018.1 |
| 20260508142147 | 13 | 297 | 3.2 | 6.4 | 0.00 | 0.00 | 0.00 | 48 | 1018.1 |
| 20260508142049 | 13 | 290 | 3.2 | 9.7 | 0.00 | 0.00 | 0.00 | 50 | 1018.1 |
| 20260508141948 | 13 | 309 | 4.8 | 9.7 | 0.00 | 0.00 | 0.00 | 52 | 1018.1 |
| 20260508141847 | 13 | 310 | 4.8 | 9.7 | 0.00 | 0.00 | 0.00 | 51 | 1018.2 |
| 20260508141748 | 13 | 317 | 4.8 | 9.7 | 0.00 | 0.00 | 0.00 | 51 | 1018.1 |
| 20260508141648 | 13 | 312 | 4.8 | 11.3 | 0.00 | 0.00 | 0.00 | 49 | 1018.1 |
| 20260508141548 | 13 | 291 | 4.8 | 11.3 | 0.00 | 0.00 | 0.00 | 51 | 1018.1 |
| 20260508141447 | 13 | 300 | 4.8 | 11.3 | 0.00 | 0.00 | 0.00 | 53 | 1018.1 |
| 20260508141347 | 13 | 336 | 4.8 | 11.3 | 0.00 | 0.00 | 0.00 | 52 | 1018.1 |
| 20260508141248 | 13 | 336 | 4.8 | 11.3 | 0.00 | 0.00 | 0.00 | 51 | 1018.1 |
| 20260508141147 | 13 | 282 | 4.8 | 11.3 | 0.00 | 0.00 | 0.00 | 52 | 1018.1 |
| 20260508141049 | 13 | 351 | 4.8 | 11.3 | 0.00 | 0.00 | 0.00 | 51 | 1018.1 |
| 20260508140949 | 13 | 340 | 4.8 | 11.3 | 0.00 | 0.00 | 0.00 | 50 | 1018.2 |
| 20260508140848 | 13 | 330 | 4.8 | 11.3 | 0.00 | 0.00 | 0.00 | 53 | 1018.1 |
| 20260508140747 | 13 | 309 | 3.2 | 11.3 | 0.00 | 0.00 | 0.00 | 52 | 1018.1 |
| 20260508140647 | 13 | 327 | 3.2 | 9.7 | 0.00 | 0.00 | 0.00 | 52 | 1018.1 |
| 20260508140549 | 13 | 337 | 3.2 | 9.7 | 0.00 | 0.00 | 0.00 | 53 | 1018.2 |
| 20260508140448 | 13 | 153 | 3.2 | 8.0 | 0.00 | 0.00 | 0.00 | 53 | 1018.2 |
| 20260508140348 | 13 | 275 | 3.2 | 8.0 | 0.00 | 0.00 | 0.00 | 54 | 1018.1 |
| 20260508140249 | 13 | 273 | 3.2 | 8.0 | 0.00 | 0.00 | 0.00 | 52 | 1018.1 |
| 20260508140147 | 13 | 273 | 3.2 | 8.0 | 0.00 | 0.00 | 0.00 | 51 | 1018.2 |
| 20260508140048 | 13 | 309 | 3.2 | 8.0 | 0.00 | 0.00 | 0.00 | 52 | 1018.1 |
| 20260508135948 | 13 | 305 | 3.2 | 8.0 | 0.00 | 0.00 | 0.00 | 52 | 1018.2 |
| 20260508135840 | 13 | 229 | 3.2 | 8.0 | 0.00 | 0.00 | 0.00 | 52 | 1018.1 |
| 20260508135740 | 13 | 299 | 3.2 | 8.0 | 0.00 | 0.00 | 0.00 | 53 | 1018.1 |
| 20260508135540 | 13 | 298 | 3.2 | 6.4 | 0.00 | 0.00 | 0.00 | 52 | 1018.0 |
| 20260508135439 | 13 | 297 | 3.2 | 6.4 | 0.00 | 0.00 | 0.00 | 54 | 1018.1 |
| 20260508135341 | 13 | 294 | 3.2 | 6.4 | 0.00 | 0.00 | 0.00 | 54 | 1018.1 |
| 20260508135239 | 13 | 291 | 3.2 | 6.4 | 0.00 | 0.00 | 0.00 | 53 | 1018.1 |
| 20260508135140 | 13 | 291 | 3.2 | 6.4 | 0.00 | 0.00 | 0.00 | 52 | 1018.0 |
| 20260508135039 | 12 | 311 | 3.2 | 6.4 | 0.00 | 0.00 | 0.00 | 53 | 1018.0 |
| 20260508134940 | 12 | 312 | 3.2 | 6.4 | 0.00 | 0.00 | 0.00 | 54 | 1018.0 |
| 20260508134841 | 12 | 312 | 3.2 | 8.0 | 0.00 | 0.00 | 0.00 | 55 | 1017.9 |
| 20260508134739 | 12 | 312 | 3.2 | 8.0 | 0.00 | 0.00 | 0.00 | 55 | 1018.1 |
| 20260508134641 | 12 | 313 | 4.8 | 8.0 | 0.00 | 0.00 | 0.00 | 55 | 1017.9 |
| 20260508134541 | 12 | 313 | 4.8 | 9.7 | 0.00 | 0.00 | 0.00 | 53 | 1018.0 |
| 20260508134440 | 12 | 312 | 4.8 | 9.7 | 0.00 | 0.00 | 0.00 | 52 | 1018.0 |
| 20260508134340 | 12 | 312 | 4.8 | 9.7 | 0.00 | 0.00 | 0.00 | 54 | 1017.9 |
| 20260508134241 | 12 | 313 | 4.8 | 9.7 | 0.00 | 0.00 | 0.00 | 53 | 1017.9 |
| 20260508134139 | 12 | 313 | 4.8 | 9.7 | 0.00 | 0.00 | 0.00 | 55 | 1018.0 |
| 20260508134039 | 12 | 295 | 4.8 | 9.7 | 0.00 | 0.00 | 0.00 | 55 | 1017.9 |
| 20260508133940 | 12 | 274 | 4.8 | 9.7 | 0.00 | 0.00 | 0.00 | 56 | 1017.9 |
| 20260508133840 | 12 | 289 | 4.8 | 9.7 | 0.00 | 0.00 | 0.00 | 57 | 1017.9 |
| 20260508133741 | 12 | 319 | 4.8 | 9.7 | 0.00 | 0.00 | 0.00 | 54 | 1017.8 |
| 20260508133639 | 12 | 306 | 4.8 | 9.7 | 0.00 | 0.00 | 0.00 | 55 | 1017.8 |
| 20260508133539 | 12 | 317 | 4.8 | 8.0 | 0.00 | 0.00 | 0.00 | 55 | 1017.8 |
| 20260508133439 | 12 | 296 | 4.8 | 8.0 | 0.00 | 0.00 | 0.00 | 56 | 1017.8 |
| 20260508133340 | 12 | 287 | 4.8 | 8.0 | 0.00 | 0.00 | 0.00 | 55 | 1017.8 |
| 20260508133235 | 12 | 317 | 4.8 | 8.0 | 0.00 | 0.00 | 0.00 | 55 | 1017.7 |
| 20260508133136 | 12 | 307 | 4.8 | 8.0 | 0.00 | 0.00 | 0.00 | 55 | 1017.9 |
| 20260508133035 | 12 | 316 | 4.8 | 9.7 | 0.00 | 0.00 | 0.00 | 57 | 1017.8 |
| 20260508132935 | 12 | 279 | 4.8 | 9.7 | 0.00 | 0.00 | 0.00 | 57 | 1017.8 |
| 20260508132831 | 12 | 321 | 4.8 | 9.7 | 0.00 | 0.00 | 0.00 | 58 | 1017.8 |
| 20260508132724 | 12 | 328 | 4.8 | 9.7 | 0.00 | 0.00 | 0.00 | 57 | 1017.8 |
| 20260508132625 | 12 | 308 | 4.8 | 9.7 | 0.00 | 0.00 | 0.00 | 59 | 1017.8 |
| 20260508132528 | 12 | 310 | 4.8 | 9.7 | 0.00 | 0.00 | 0.00 | 56 | 1017.8 |
| 20260508132425 | 12 | 333 | 4.8 | 9.7 | 0.00 | 0.00 | 0.00 | 57 | 1017.7 |
| 20260508132322 | 12 | 337 | 4.8 | 9.7 | 0.00 | 0.00 | 0.00 | 58 | 1017.8 |
| 20260508132217 | 12 | 337 | 4.8 | 9.7 | 0.00 | 0.00 | 0.00 | 58 | 1017.8 |
| 20260508132117 | 12 | 317 | 4.8 | 9.7 | 0.00 | 0.00 | 0.00 | 57 | 1017.8 |
| 20260508132019 | 12 | 315 | 4.8 | 9.7 | 0.00 | 0.00 | 0.00 | 57 | 1017.8 |
| 20260508131918 | 12 | 312 | 4.8 | 9.7 | 0.00 | 0.00 | 0.00 | 58 | 1017.8 |
| 20260508131815 | 12 | 337 | 4.8 | 8.0 | 0.00 | 0.00 | 0.00 | 58 | 1017.8 |
| 20260508131713 | 12 | 348 | 4.8 | 8.0 | 0.00 | 0.00 | 0.00 | 58 | 1017.8 |
| 20260508131612 | 12 | 309 | 4.8 | 8.0 | 0.00 | 0.00 | 0.00 | 57 | 1017.8 |
| 20260508131512 | 12 | 290 | 4.8 | 8.0 | 0.00 | 0.00 | 0.00 | 58 | 1017.9 |
| 20260508131411 | 12 | 295 | 4.8 | 8.0 | 0.00 | 0.00 | 0.00 | 58 | 1017.8 |
| 20260508131309 | 12 | 327 | 3.2 | 8.0 | 0.00 | 0.00 | 0.00 | 58 | 1017.7 |
| 20260508131202 | 12 | 338 | 3.2 | 8.0 | 0.00 | 0.00 | 0.00 | 58 | 1017.7 |
| 20260508131102 | 12 | 340 | 3.2 | 8.0 | 0.00 | 0.00 | 0.00 | 58 | 1017.8 |
| 20260508131002 | 12 | 340 | 3.2 | 8.0 | 0.00 | 0.00 | 0.00 | 57 | 1017.7 |
| 20260508130902 | 12 | 355 | 4.8 | 8.0 | 0.00 | 0.00 | 0.00 | 58 | 1017.7 |
| 20260508130800 | 12 | 313 | 4.8 | 8.0 | 0.00 | 0.00 | 0.00 | 58 | 1017.7 |
| 20260508130655 | 12 | 313 | 4.8 | 8.0 | 0.00 | 0.00 | 0.00 | 58 | 1017.7 |
| 20260508130556 | 12 | 325 | 4.8 | 8.0 | 0.00 | 0.00 | 0.00 | 59 | 1017.7 |
| 20260508130456 | 12 | 319 | 4.8 | 8.0 | 0.00 | 0.00 | 0.00 | 58 | 1017.7 |
| 20260508130355 | 12 | 338 | 4.8 | 8.0 | 0.00 | 0.00 | 0.00 | 58 | 1017.8 |
| 20260508130254 | 12 | 309 | 4.8 | 8.0 | 0.00 | 0.00 | 0.00 | 59 | 1017.7 |
| 20260508130150 | 12 | 319 | 4.8 | 8.0 | 0.00 | 0.00 | 0.00 | 59 | 1017.8 |
| 20260508130050 | 12 | 317 | 4.8 | 8.0 | 0.00 | 0.00 | 0.00 | 58 | 1017.8 |
| 20260508125949 | 12 | 323 | 4.8 | 8.0 | 0.00 | 0.00 | 0.00 | 59 | 1017.8 |
| 20260508125851 | 12 | 355 | 4.8 | 8.0 | 0.00 | 0.00 | 0.00 | 58 | 1017.8 |
| 20260508125748 | 12 | 350 | 4.8 | 8.0 | 0.00 | 0.00 | 0.00 | 57 | 1017.8 |
| 20260508125639 | 12 | 336 | 4.8 | 8.0 | 0.00 | 0.00 | 0.00 | 58 | 1017.7 |
| 20260508125539 | 12 | 300 | 3.2 | 8.0 | 0.00 | 0.00 | 0.00 | 58 | 1017.8 |
| 20260508125437 | 12 | 300 | 3.2 | 8.0 | 0.00 | 0.00 | 0.00 | 59 | 1017.8 |
| 20260508125338 | 12 | 304 | 3.2 | 8.0 | 0.00 | 0.00 | 0.00 | 57 | 1017.8 |
| 20260508125236 | 12 | 304 | 4.8 | 8.0 | 0.00 | 0.00 | 0.00 | 58 | 1017.8 |
| 20260508125135 | 12 | 303 | 3.2 | 8.0 | 0.00 | 0.00 | 0.00 | 58 | 1017.8 |
| 20260508125033 | 12 | 306 | 3.2 | 8.0 | 0.00 | 0.00 | 0.00 | 59 | 1017.8 |
| 20260508124932 | 12 | 343 | 3.2 | 8.0 | 0.00 | 0.00 | 0.00 | 59 | 1017.8 |
| 20260508124832 | 12 | 342 | 3.2 | 8.0 | 0.00 | 0.00 | 0.00 | 62 | 1017.8 |
| 20260508124729 | 11 | 271 | 3.2 | 8.0 | 0.00 | 0.00 | 0.00 | 61 | 1017.8 |
| 20260508124627 | 11 | 344 | 3.2 | 8.0 | 0.00 | 0.00 | 0.00 | 62 | 1017.7 |
| 20260508124525 | 11 | 347 | 3.2 | 8.0 | 0.00 | 0.00 | 0.00 | 63 | 1017.8 |
| 20260508124425 | 11 | 351 | 3.2 | 8.0 | 0.00 | 0.00 | 0.00 | 60 | 1017.8 |
| 20260508124326 | 11 | 347 | 4.8 | 8.0 | 0.00 | 0.00 | 0.00 | 60 | 1017.7 |
| 20260508124224 | 11 | 5 | 3.2 | 6.4 | 0.00 | 0.00 | 0.00 | 61 | 1017.7 |
| 20260508124120 | 11 | 328 | 3.2 | 6.4 | 0.00 | 0.00 | 0.00 | 61 | 1017.7 |
| 20260508124019 | 11 | 328 | 4.8 | 6.4 | 0.00 | 0.00 | 0.00 | 62 | 1017.6 |
| 20260508123916 | 11 | 349 | 4.8 | 6.4 | 0.00 | 0.00 | 0.00 | 63 | 1017.6 |
| 20260508123815 | 11 | 349 | 4.8 | 6.4 | 0.00 | 0.00 | 0.00 | 63 | 1017.7 |
| 20260508123714 | 11 | 350 | 4.8 | 6.4 | 0.00 | 0.03 | 0.00 | 64 | 1017.7 |
| 20260508123611 | 11 | 333 | 4.8 | 6.4 | 0.00 | 0.03 | 0.00 | 64 | 1017.7 |
| 20260508123512 | 11 | 336 | 4.8 | 6.4 | 0.00 | 0.03 | 0.00 | 65 | 1017.7 |
| 20260508123409 | 11 | 323 | 4.8 | 6.4 | 0.00 | 0.03 | 0.00 | 64 | 1017.6 |
| 20260508123310 | 11 | 350 | 4.8 | 6.4 | 0.00 | 0.03 | 0.00 | 64 | 1017.7 |
| 20260508123208 | 11 | 342 | 4.8 | 6.4 | 0.00 | 0.03 | 0.00 | 64 | 1017.7 |
| 20260508123101 | 11 | 341 | 4.8 | 6.4 | 0.00 | 0.03 | 0.00 | 63 | 1017.6 |
| 20260508123001 | 11 | 280 | 4.8 | 6.4 | 0.00 | 0.03 | 0.00 | 63 | 1017.6 |
| 20260508122905 | 11 | 329 | 4.8 | 6.4 | 0.00 | 0.03 | 0.00 | 64 | 1017.6 |
| 20260508122802 | 11 | 344 | 4.8 | 6.4 | 0.00 | 0.03 | 0.00 | 66 | 1017.7 |
| 20260508122702 | 11 | 54 | 4.8 | 6.4 | 0.00 | 0.03 | 0.00 | 66 | 1017.5 |
| 20260508122553 | 11 | 54 | 4.8 | 8.0 | 0.00 | 0.03 | 0.00 | 66 | 1017.5 |
| 20260508122451 | 11 | 82 | 4.8 | 8.0 | 0.00 | 0.03 | 0.00 | 66 | 1017.6 |
| 20260508122352 | 11 | 344 | 4.8 | 8.0 | 0.00 | 0.03 | 0.00 | 65 | 1017.5 |
| 20260508122251 | 11 | 345 | 4.8 | 11.3 | 0.00 | 0.03 | 0.00 | 64 | 1017.6 |
| 20260508122152 | 11 | 344 | 4.8 | 11.3 | 0.00 | 0.03 | 0.00 | 64 | 1017.6 |
| 20260508122049 | 11 | 345 | 4.8 | 11.3 | 0.00 | 0.03 | 0.00 | 63 | 1017.5 |
| 20260508121950 | 11 | 344 | 4.8 | 11.3 | 0.00 | 0.03 | 0.00 | 65 | 1017.6 |
| 20260508121848 | 10 | 344 | 4.8 | 11.3 | 0.00 | 0.05 | 0.00 | 63 | 1017.5 |
| 20260508121748 | 10 | 344 | 4.8 | 11.3 | 0.00 | 0.05 | 0.00 | 63 | 1017.5 |
| 20260508121645 | 10 | 313 | 4.8 | 11.3 | 0.00 | 0.05 | 0.00 | 63 | 1017.4 |
| 20260508121541 | 10 | 295 | 4.8 | 11.3 | 0.00 | 0.05 | 0.00 | 63 | 1017.4 |
| 20260508121443 | 10 | 306 | 4.8 | 11.3 | 0.00 | 0.05 | 0.00 | 62 | 1017.4 |
| 20260508121341 | 10 | 304 | 4.8 | 11.3 | 0.00 | 0.05 | 0.00 | 63 | 1017.4 |
| 20260508121242 | 10 | 286 | 4.8 | 8.0 | 0.00 | 0.05 | 0.00 | 63 | 1017.4 |
| 20260508121139 | 10 | 301 | 4.8 | 6.4 | 0.00 | 0.05 | 0.00 | 64 | 1017.5 |
| 20260508121030 | 10 | 302 | 3.2 | 6.4 | 0.00 | 0.08 | 0.00 | 64 | 1017.4 |
| 20260508120930 | 10 | 302 | 3.2 | 6.4 | 0.00 | 0.08 | 0.00 | 64 | 1017.4 |
| 20260508120831 | 10 | 302 | 3.2 | 6.4 | 0.00 | 0.08 | 0.00 | 63 | 1017.4 |
| 20260508120729 | 10 | 315 | 3.2 | 6.4 | 0.00 | 0.08 | 0.00 | 63 | 1017.4 |
| 20260508120630 | 10 | 306 | 3.2 | 6.4 | 0.00 | 0.08 | 0.00 | 66 | 1017.4 |
| 20260508120523 | 10 | 305 | 3.2 | 6.4 | 0.00 | 0.08 | 0.00 | 65 | 1017.4 |
| 20260508120424 | 10 | 291 | 3.2 | 6.4 | 0.00 | 0.08 | 0.00 | 65 | 1017.3 |
| 20260508120324 | 10 | 291 | 3.2 | 6.4 | 0.00 | 0.08 | 0.00 | 64 | 1017.3 |
| 20260508120224 | 10 | 292 | 3.2 | 6.4 | 0.00 | 0.08 | 0.00 | 66 | 1017.3 |
| 20260508120124 | 10 | 296 | 3.2 | 6.4 | 0.00 | 0.08 | 0.00 | 66 | 1017.3 |
| 20260508120020 | 10 | 295 | 3.2 | 6.4 | 0.00 | 0.08 | 0.00 | 65 | 1017.2 |
| 20260508115918 | 10 | 296 | 3.2 | 6.4 | 0.00 | 0.10 | 0.00 | 66 | 1017.3 |
| 20260508115818 | 10 | 304 | 3.2 | 6.4 | 0.00 | 0.10 | 0.00 | 66 | 1017.3 |
| 20260508115717 | 10 | 305 | 3.2 | 6.4 | 0.00 | 0.10 | 0.00 | 66 | 1017.3 |
| 20260508115617 | 10 | 288 | 3.2 | 6.4 | 0.00 | 0.10 | 0.00 | 67 | 1017.2 |
| 20260508115511 | 10 | 336 | 3.2 | 6.4 | 0.00 | 0.10 | 0.00 | 66 | 1017.2 |